Time,TemperatureF,DewpointF,PressureIn,WindDirection,WindDirectionDegrees,WindSpeedMPH,WindSpeedGustMPH,Humidity,HourlyPrecipIn,Conditions,Clouds,dailyrainin,SoftwareType,DateUTC
2013-07-11 00:00:00,73.1,39.9,29.70,WSW,248,7.6,8.5,30,0.00,,,0.00,WUHU216HW,2013-07-11 06:00:00,
2013-07-11 00:01:00,73.3,39.0,29.70,WSW,248,5.4,8.5,29,0.00,,,0.00,WUHU216HW,2013-07-11 06:01:00,
2013-07-11 00:04:00,73.4,39.2,29.69,WSW,248,6.0,8.5,29,0.00,,,0.00,WUHU216HW,2013-07-11 06:04:00,
2013-07-11 00:05:00,73.4,39.2,29.69,WSW,248,6.3,8.5,29,0.00,,,0.00,WUHU216HW,2013-07-11 06:05:00,
2013-07-11 00:06:00,73.6,39.3,29.69,WSW,248,5.1,8.5,29,0.00,,,0.00,WUHU216HW,2013-07-11 06:06:00,
2013-07-11 00:09:00,73.6,39.3,29.69,WSW,248,4.9,7.6,29,0.00,,,0.00,WUHU216HW,2013-07-11 06:09:00,
2013-07-11 00:10:00,73.6,39.3,29.69,WSW,248,4.9,6.9,29,0.00,,,0.00,WUHU216HW,2013-07-11 06:10:00,
2013-07-11 00:11:00,73.6,39.3,29.69,WSW,248,4.7,6.9,29,0.00,,,0.00,WUHU216HW,2013-07-11 06:11:00,
2013-07-11 00:14:00,73.8,39.4,29.69,WSW,248,6.3,6.3,29,0.00,,,0.00,WUHU216HW,2013-07-11 06:14:00,
2013-07-11 00:15:00,73.8,39.4,29.69,WSW,248,6.3,6.3,29,0.00,,,0.00,WUHU216HW,2013-07-11 06:15:00,
2013-07-11 00:16:00,73.8,39.4,29.69,WSW,248,5.1,6.3,29,0.00,,,0.00,WUHU216HW,2013-07-11 06:16:00,
2013-07-11 00:19:00,73.8,39.4,29.69,WSW,248,6.5,6.9,29,0.00,,,0.00,WUHU216HW,2013-07-11 06:19:00,
2013-07-11 00:20:00,73.8,39.4,29.69,WSW,248,6.7,6.9,29,0.00,,,0.00,WUHU216HW,2013-07-11 06:20:00,
2013-07-11 00:21:00,73.8,39.4,29.69,WSW,248,6.0,6.9,29,0.00,,,0.00,WUHU216HW,2013-07-11 06:21:00,
2013-07-11 00:22:00,74.0,39.6,29.69,West,270,7.8,7.8,29,0.00,,,0.00,WUHU216HW,2013-07-11 06:22:00,
2013-07-11 00:25:00,73.8,39.4,29.69,WSW,248,5.8,8.7,29,0.00,,,0.00,WUHU216HW,2013-07-11 06:25:00,
2013-07-11 00:26:00,73.8,39.4,29.69,WSW,248,5.6,8.7,29,0.00,,,0.00,WUHU216HW,2013-07-11 06:26:00,
2013-07-11 00:27:00,73.8,39.4,29.69,West,270,4.0,8.7,29,0.00,,,0.00,WUHU216HW,2013-07-11 06:27:00,
2013-07-11 00:30:00,73.3,39.0,29.69,West,270,5.6,8.7,29,0.00,,,0.00,WUHU216HW,2013-07-11 06:30:00,
2013-07-11 00:31:00,73.1,39.9,29.69,West,270,6.5,8.7,30,0.00,,,0.00,WUHU216HW,2013-07-11 06:31:00,
2013-07-11 00:32:00,72.7,39.6,29.69,West,270,5.6,8.7,30,0.00,,,0.00,WUHU216HW,2013-07-11 06:32:00,
2013-07-11 00:35:00,72.2,39.2,29.69,West,270,5.4,6.7,30,0.00,,,0.00,WUHU216HW,2013-07-11 06:35:00,
2013-07-11 00:36:00,72.0,39.0,29.69,WSW,248,5.4,6.7,30,0.00,,,0.00,WUHU216HW,2013-07-11 06:36:00,
2013-07-11 00:37:00,71.8,38.9,29.69,West,270,6.0,6.7,30,0.00,,,0.00,WUHU216HW,2013-07-11 06:37:00,
2013-07-11 00:40:00,71.5,38.5,29.69,West,270,4.7,6.7,30,0.00,,,0.00,WUHU216HW,2013-07-11 06:40:00,
2013-07-11 00:41:00,71.5,39.2,29.69,NW,315,4.0,6.7,31,0.00,,,0.00,WUHU216HW,2013-07-11 06:41:00,
2013-07-11 00:42:00,71.5,39.2,29.69,NW,315,4.0,6.7,31,0.00,,,0.00,WUHU216HW,2013-07-11 06:42:00,
2013-07-11 00:45:00,71.6,39.4,29.69,West,270,5.4,6.7,31,0.00,,,0.00,WUHU216HW,2013-07-11 06:45:00,
2013-07-11 00:47:00,71.6,39.4,29.69,WNW,293,3.8,6.7,31,0.00,,,0.00,WUHU216HW,2013-07-11 06:47:00,
2013-07-11 00:50:00,72.0,39.7,29.69,NW,315,4.9,6.3,31,0.00,,,0.00,WUHU216HW,2013-07-11 06:50:00,
2013-07-11 00:51:00,72.0,39.7,29.69,West,270,6.3,6.3,31,0.00,,,0.00,WUHU216HW,2013-07-11 06:51:00,
2013-07-11 00:52:00,72.2,39.9,29.69,West,270,5.4,6.3,31,0.00,,,0.00,WUHU216HW,2013-07-11 06:52:00,
2013-07-11 00:53:00,72.4,39.2,29.69,West,270,5.1,6.3,30,0.00,,,0.00,WUHU216HW,2013-07-11 06:53:00,
2013-07-11 00:55:00,72.5,39.4,29.69,WSW,248,5.6,6.7,30,0.00,,,0.00,WUHU216HW,2013-07-11 06:55:00,
2013-07-11 00:56:00,72.5,39.4,29.69,WSW,248,5.6,6.7,30,0.00,,,0.00,WUHU216HW,2013-07-11 06:56:00,
2013-07-11 00:57:00,72.5,39.4,29.69,WSW,248,4.7,6.7,30,0.00,,,0.00,WUHU216HW,2013-07-11 06:57:00,
2013-07-11 00:59:00,72.4,39.2,29.69,WSW,248,4.5,6.7,30,0.00,,,0.00,WUHU216HW,2013-07-11 06:59:00,
2013-07-11 01:00:00,72.4,39.2,29.69,West,270,4.3,6.7,30,0.00,,,0.00,WUHU216HW,2013-07-11 07:00:00,
2013-07-11 01:01:00,72.4,39.2,29.69,WNW,293,3.8,6.7,30,0.00,,,0.00,WUHU216HW,2013-07-11 07:01:00,
2013-07-11 01:02:00,72.4,39.2,29.69,WNW,293,3.6,6.7,30,0.00,,,0.00,WUHU216HW,2013-07-11 07:02:00,
2013-07-11 01:03:00,72.7,39.6,29.69,NW,315,4.3,6.7,30,0.00,,,0.00,WUHU216HW,2013-07-11 07:03:00,
2013-07-11 01:04:00,72.9,39.7,29.69,NNW,338,3.6,6.3,30,0.00,,,0.00,WUHU216HW,2013-07-11 07:04:00,
2013-07-11 01:05:00,73.1,39.9,29.69,NNW,338,6.5,6.5,30,0.00,,,0.00,WUHU216HW,2013-07-11 07:05:00,
2013-07-11 01:07:00,73.1,39.9,29.69,NNW,338,5.1,6.5,30,0.00,,,0.00,WUHU216HW,2013-07-11 07:07:00,
2013-07-11 01:08:00,73.1,39.9,29.69,NNW,338,4.7,6.5,30,0.00,,,0.00,WUHU216HW,2013-07-11 07:08:00,
2013-07-11 01:09:00,72.9,39.7,29.69,NNW,338,3.4,6.5,30,0.00,,,0.00,WUHU216HW,2013-07-11 07:09:00,
2013-07-11 01:10:00,72.7,40.3,29.69,NW,315,2.7,6.5,31,0.00,,,0.00,WUHU216HW,2013-07-11 07:10:00,
2013-07-11 01:12:00,72.5,40.1,29.69,West,270,3.6,6.5,31,0.00,,,0.00,WUHU216HW,2013-07-11 07:12:00,
2013-07-11 01:13:00,72.2,40.6,29.69,WNW,293,5.6,6.5,32,0.00,,,0.00,WUHU216HW,2013-07-11 07:13:00,
2013-07-11 01:14:00,72.0,39.7,29.69,NW,315,4.5,6.5,31,0.00,,,0.00,WUHU216HW,2013-07-11 07:14:00,
2013-07-11 01:15:00,72.0,39.7,29.69,NW,315,4.5,6.3,31,0.00,,,0.00,WUHU216HW,2013-07-11 07:15:00,
2013-07-11 01:17:00,72.2,39.9,29.69,NW,315,3.4,6.0,31,0.00,,,0.00,WUHU216HW,2013-07-11 07:17:00,
2013-07-11 01:19:00,72.4,40.1,29.68,NW,315,4.3,6.0,31,0.00,,,0.00,WUHU216HW,2013-07-11 07:19:00,
2013-07-11 01:20:00,72.5,40.1,29.68,NW,315,4.0,6.0,31,0.00,,,0.00,WUHU216HW,2013-07-11 07:20:00,
2013-07-11 01:22:00,72.7,39.6,29.68,WNW,293,4.7,6.0,30,0.00,,,0.00,WUHU216HW,2013-07-11 07:22:00,
2013-07-11 01:24:00,73.1,38.9,29.68,NW,315,6.3,6.3,29,0.00,,,0.00,WUHU216HW,2013-07-11 07:24:00,
2013-07-11 01:25:00,73.4,39.2,29.68,NW,315,4.0,6.3,29,0.00,,,0.00,WUHU216HW,2013-07-11 07:25:00,
2013-07-11 01:27:00,73.8,39.4,29.68,West,270,4.7,6.3,29,0.00,,,0.00,WUHU216HW,2013-07-11 07:27:00,
2013-07-11 01:30:00,74.2,38.8,29.68,WNW,293,5.6,6.9,28,0.00,,,0.00,WUHU216HW,2013-07-11 07:30:00,
2013-07-11 01:31:00,74.3,38.9,29.68,NW,315,4.5,6.9,28,0.00,,,0.00,WUHU216HW,2013-07-11 07:31:00,
2013-07-11 01:32:00,74.7,39.3,29.68,NW,315,3.4,6.9,28,0.00,,,0.00,WUHU216HW,2013-07-11 07:32:00,
2013-07-11 01:35:00,74.9,39.4,29.68,NW,315,4.9,6.9,28,0.00,,,0.00,WUHU216HW,2013-07-11 07:35:00,
2013-07-11 01:36:00,74.9,39.4,29.68,NNW,338,5.4,6.9,28,0.00,,,0.00,WUHU216HW,2013-07-11 07:36:00,
2013-07-11 01:37:00,74.9,39.4,29.68,WNW,293,4.9,6.9,28,0.00,,,0.00,WUHU216HW,2013-07-11 07:37:00,
2013-07-11 01:38:00,74.9,39.4,29.68,WNW,293,4.9,6.9,28,0.00,,,0.00,WUHU216HW,2013-07-11 07:38:00,
2013-07-11 01:40:00,74.5,39.1,29.68,NW,315,4.5,6.3,28,0.00,,,0.00,WUHU216HW,2013-07-11 07:40:00,
2013-07-11 01:41:00,74.3,38.9,29.68,NNW,338,4.7,6.3,28,0.00,,,0.00,WUHU216HW,2013-07-11 07:41:00,
2013-07-11 01:42:00,74.3,38.9,29.68,NNW,338,5.4,6.3,28,0.00,,,0.00,WUHU216HW,2013-07-11 07:42:00,
2013-07-11 01:43:00,74.3,38.9,29.68,NW,315,5.1,6.3,28,0.00,,,0.00,WUHU216HW,2013-07-11 07:43:00,
2013-07-11 01:45:00,74.0,38.6,29.68,West,270,3.8,6.3,28,0.00,,,0.00,WUHU216HW,2013-07-11 07:45:00,
2013-07-11 01:46:00,74.0,38.6,29.68,NW,315,2.2,6.3,28,0.00,,,0.00,WUHU216HW,2013-07-11 07:46:00,
2013-07-11 01:47:00,73.8,38.4,29.68,WSW,248,2.5,5.6,28,0.00,,,0.00,WUHU216HW,2013-07-11 07:47:00,
2013-07-11 01:48:00,73.8,38.4,29.68,WSW,248,1.1,5.6,28,0.00,,,0.00,WUHU216HW,2013-07-11 07:48:00,
2013-07-11 01:51:00,73.6,38.3,29.68,ESE,113,3.1,5.6,28,0.00,,,0.00,WUHU216HW,2013-07-11 07:51:00,
2013-07-11 01:53:00,73.3,39.0,29.68,East,90,4.7,5.6,29,0.00,,,0.00,WUHU216HW,2013-07-11 07:53:00,
2013-07-11 01:56:00,72.4,40.1,29.68,NE,45,5.8,5.8,31,0.00,,,0.00,WUHU216HW,2013-07-11 07:56:00,
2013-07-11 01:58:00,72.0,39.0,29.67,NNE,23,2.9,5.8,30,0.00,,,0.00,WUHU216HW,2013-07-11 07:58:00,
2013-07-11 02:01:00,71.8,38.9,29.67,WNW,293,4.5,5.8,30,0.00,,,0.00,WUHU216HW,2013-07-11 08:01:00,
2013-07-11 02:02:00,71.8,38.9,29.67,WNW,293,4.3,5.8,30,0.00,,,0.00,WUHU216HW,2013-07-11 08:02:00,
2013-07-11 02:03:00,71.6,38.7,29.67,NW,315,3.8,5.8,30,0.00,,,0.00,WUHU216HW,2013-07-11 08:03:00,
2013-07-11 02:06:00,71.6,38.7,29.67,NW,315,2.2,4.5,30,0.00,,,0.00,WUHU216HW,2013-07-11 08:06:00,
2013-07-11 02:07:00,71.6,39.4,29.67,NNW,338,1.1,4.5,31,0.00,,,0.00,WUHU216HW,2013-07-11 08:07:00,
2013-07-11 02:08:00,71.6,39.4,29.67,NNE,23,3.4,4.5,31,0.00,,,0.00,WUHU216HW,2013-07-11 08:08:00,
2013-07-11 02:12:00,71.6,39.4,29.67,North,0,0.7,4.3,31,0.00,,,0.00,WUHU216HW,2013-07-11 08:12:00,
2013-07-11 02:13:00,71.6,38.7,29.67,North,0,0.7,4.0,30,0.00,,,0.00,WUHU216HW,2013-07-11 08:13:00,
2013-07-11 02:14:00,71.6,38.7,29.67,North,0,0.4,4.0,30,0.00,,,0.00,WUHU216HW,2013-07-11 08:14:00,
2013-07-11 02:17:00,71.3,39.2,29.67,WSW,248,8.3,8.3,31,0.00,,,0.00,WUHU216HW,2013-07-11 08:17:00,
2013-07-11 02:19:00,70.6,38.4,29.67,WSW,248,6.9,8.3,31,0.00,,,0.00,WUHU216HW,2013-07-11 08:19:00,
2013-07-11 02:22:00,70.0,38.7,29.68,South,180,4.3,8.3,32,0.00,,,0.00,WUHU216HW,2013-07-11 08:22:00,
2013-07-11 02:24:00,69.8,38.5,29.68,SSE,158,5.1,8.3,32,0.00,,,0.00,WUHU216HW,2013-07-11 08:24:00,
2013-07-11 02:27:00,69.5,39.0,29.68,South,180,2.5,8.3,33,0.00,,,0.00,WUHU216HW,2013-07-11 08:27:00,
2013-07-11 02:28:00,69.5,38.3,29.68,SSE,158,3.1,7.2,32,0.00,,,0.00,WUHU216HW,2013-07-11 08:28:00,
2013-07-11 02:29:00,69.3,38.1,29.68,SSE,158,3.6,7.2,32,0.00,,,0.00,WUHU216HW,2013-07-11 08:29:00,
2013-07-11 02:32:00,68.8,38.4,29.68,SSE,158,4.5,6.3,33,0.00,,,0.00,WUHU216HW,2013-07-11 08:32:00,
2013-07-11 02:33:00,68.8,38.4,29.68,SSE,158,5.1,6.3,33,0.00,,,0.00,WUHU216HW,2013-07-11 08:33:00,
2013-07-11 02:34:00,68.6,38.2,29.67,SSE,158,3.4,6.3,33,0.00,,,0.00,WUHU216HW,2013-07-11 08:34:00,
2013-07-11 02:37:00,68.2,37.8,29.67,SSE,158,4.3,6.3,33,0.00,,,0.00,WUHU216HW,2013-07-11 08:37:00,
2013-07-11 02:38:00,68.2,37.8,29.67,SSE,158,4.7,6.3,33,0.00,,,0.00,WUHU216HW,2013-07-11 08:38:00,
2013-07-11 02:39:00,68.2,38.6,29.67,SE,135,4.3,6.3,34,0.00,,,0.00,WUHU216HW,2013-07-11 08:39:00,
2013-07-11 02:40:00,68.2,37.8,29.67,SSE,158,4.0,6.3,33,0.00,,,0.00,WUHU216HW,2013-07-11 08:40:00,
2013-07-11 02:43:00,68.0,38.4,29.67,SE,135,4.7,4.9,34,0.00,,,0.00,WUHU216HW,2013-07-11 08:43:00,
2013-07-11 02:44:00,68.0,37.7,29.67,SSE,158,2.9,4.9,33,0.00,,,0.00,WUHU216HW,2013-07-11 08:44:00,
2013-07-11 02:45:00,68.0,38.4,29.67,SE,135,3.1,4.9,34,0.00,,,0.00,WUHU216HW,2013-07-11 08:45:00,
2013-07-11 02:48:00,68.0,38.4,29.67,South,180,0.4,4.9,34,0.00,,,0.00,WUHU216HW,2013-07-11 08:48:00,
2013-07-11 02:49:00,68.0,38.4,29.67,WSW,248,1.8,4.9,34,0.00,,,0.00,WUHU216HW,2013-07-11 08:49:00,
2013-07-11 02:50:00,67.9,39.0,29.67,West,270,4.5,4.9,35,0.00,,,0.00,WUHU216HW,2013-07-11 08:50:00,
2013-07-11 02:53:00,67.7,38.9,29.67,West,270,1.8,4.7,35,0.00,,,0.00,WUHU216HW,2013-07-11 08:53:00,
2013-07-11 02:54:00,67.7,38.9,29.67,West,270,1.3,4.7,35,0.00,,,0.00,WUHU216HW,2013-07-11 08:54:00,
2013-07-11 02:56:00,67.7,38.9,29.67,NW,315,1.8,4.7,35,0.00,,,0.00,WUHU216HW,2013-07-11 08:56:00,
2013-07-11 02:58:00,67.9,39.0,29.67,WNW,293,2.9,4.7,35,0.00,,,0.00,WUHU216HW,2013-07-11 08:58:00,
2013-07-11 02:59:00,67.7,38.9,29.67,West,270,3.4,4.7,35,0.00,,,0.00,WUHU216HW,2013-07-11 08:59:00,
2013-07-11 03:01:00,67.3,38.5,29.67,WSW,248,4.5,5.4,35,0.00,,,0.00,WUHU216HW,2013-07-11 09:01:00,
2013-07-11 03:03:00,66.6,37.9,29.67,West,270,3.6,5.4,35,0.00,,,0.00,WUHU216HW,2013-07-11 09:03:00,
2013-07-11 03:04:00,66.6,37.9,29.67,West,270,3.4,5.4,35,0.00,,,0.00,WUHU216HW,2013-07-11 09:04:00,
2013-07-11 03:05:00,66.2,38.3,29.67,WSW,248,5.4,6.9,36,0.00,,,0.00,WUHU216HW,2013-07-11 09:05:00,
2013-07-11 03:06:00,65.9,38.0,29.67,WSW,248,5.1,6.9,36,0.00,,,0.00,WUHU216HW,2013-07-11 09:06:00,
2013-07-11 03:08:00,65.5,37.7,29.67,WSW,248,4.0,6.9,36,0.00,,,0.00,WUHU216HW,2013-07-11 09:08:00,
2013-07-11 03:09:00,65.3,37.5,29.67,WSW,248,3.8,6.9,36,0.00,,,0.00,WUHU216HW,2013-07-11 09:09:00,
2013-07-11 03:10:00,65.3,37.5,29.67,SW,225,4.3,6.9,36,0.00,,,0.00,WUHU216HW,2013-07-11 09:10:00,
2013-07-11 03:11:00,65.2,38.1,29.67,WSW,248,4.3,6.9,37,0.00,,,0.00,WUHU216HW,2013-07-11 09:11:00,
2013-07-11 03:13:00,65.2,38.1,29.67,WSW,248,5.1,6.9,37,0.00,,,0.00,WUHU216HW,2013-07-11 09:13:00,
2013-07-11 03:14:00,65.2,38.1,29.67,WSW,248,5.8,6.9,37,0.00,,,0.00,WUHU216HW,2013-07-11 09:14:00,
2013-07-11 03:15:00,65.2,39.5,29.67,West,270,6.5,6.5,39,0.00,,,0.00,WUHU216HW,2013-07-11 09:15:00,
2013-07-11 03:16:00,65.2,39.5,29.67,WNW,293,3.4,6.7,39,0.00,,,0.00,WUHU216HW,2013-07-11 09:16:00,
2013-07-11 03:18:00,65.2,38.8,29.67,NW,315,3.4,6.7,38,0.00,,,0.00,WUHU216HW,2013-07-11 09:18:00,
2013-07-11 03:19:00,65.2,38.8,29.67,NW,315,3.1,6.7,38,0.00,,,0.00,WUHU216HW,2013-07-11 09:19:00,
2013-07-11 03:20:00,65.3,39.0,29.67,West,270,3.4,6.7,38,0.00,,,0.00,WUHU216HW,2013-07-11 09:20:00,
2013-07-11 03:22:00,65.3,39.0,29.67,West,270,4.5,6.7,38,0.00,,,0.00,WUHU216HW,2013-07-11 09:22:00,
2013-07-11 03:23:00,65.2,38.8,29.67,WSW,248,4.0,6.7,38,0.00,,,0.00,WUHU216HW,2013-07-11 09:23:00,
2013-07-11 03:24:00,65.2,38.8,29.67,WSW,248,3.8,6.7,38,0.00,,,0.00,WUHU216HW,2013-07-11 09:24:00,
2013-07-11 03:25:00,65.2,38.8,29.67,WSW,248,4.7,4.9,38,0.00,,,0.00,WUHU216HW,2013-07-11 09:25:00,
2013-07-11 03:27:00,65.0,38.6,29.67,WSW,248,4.9,5.4,38,0.00,,,0.00,WUHU216HW,2013-07-11 09:27:00,
2013-07-11 03:28:00,65.2,38.8,29.67,WSW,248,5.1,6.0,38,0.00,,,0.00,WUHU216HW,2013-07-11 09:28:00,
2013-07-11 03:29:00,65.0,38.6,29.67,WSW,248,4.9,6.0,38,0.00,,,0.00,WUHU216HW,2013-07-11 09:29:00,
2013-07-11 03:30:00,65.2,38.8,29.67,West,270,6.3,6.3,38,0.00,,,0.00,WUHU216HW,2013-07-11 09:30:00,
2013-07-11 03:31:00,65.2,38.8,29.67,West,270,6.0,6.9,38,0.00,,,0.00,WUHU216HW,2013-07-11 09:31:00,
2013-07-11 03:33:00,65.5,39.2,29.67,West,270,8.7,8.9,38,0.00,,,0.00,WUHU216HW,2013-07-11 09:33:00,
2013-07-11 03:34:00,65.5,39.2,29.67,West,270,7.6,8.9,38,0.00,,,0.00,WUHU216HW,2013-07-11 09:34:00,
2013-07-11 03:35:00,66.1,39.6,29.67,NW,315,6.9,8.9,38,0.00,,,0.00,WUHU216HW,2013-07-11 09:35:00,
2013-07-11 03:36:00,66.2,39.8,29.67,NW,315,6.3,8.9,38,0.00,,,0.00,WUHU216HW,2013-07-11 09:36:00,
2013-07-11 03:38:00,66.6,40.2,29.68,NW,315,6.9,8.9,38,0.00,,,0.00,WUHU216HW,2013-07-11 09:38:00,
2013-07-11 03:39:00,66.6,40.2,29.68,NW,315,7.4,8.9,38,0.00,,,0.00,WUHU216HW,2013-07-11 09:39:00,
2013-07-11 03:40:00,66.8,39.5,29.68,NW,315,7.2,8.9,37,0.00,,,0.00,WUHU216HW,2013-07-11 09:40:00,
2013-07-11 03:42:00,67.0,39.7,29.68,NW,315,5.1,8.9,37,0.00,,,0.00,WUHU216HW,2013-07-11 09:42:00,
2013-07-11 03:44:00,67.3,40.0,29.68,NW,315,7.4,8.9,37,0.00,,,0.00,WUHU216HW,2013-07-11 09:44:00,
2013-07-11 03:46:00,67.7,40.3,29.68,NW,315,9.6,12.5,37,0.00,,,0.00,WUHU216HW,2013-07-11 09:46:00,
2013-07-11 03:47:00,67.7,40.3,29.68,NNW,338,9.2,12.5,37,0.00,,,0.00,WUHU216HW,2013-07-11 09:47:00,
2013-07-11 03:49:00,67.7,40.3,29.68,NW,315,7.6,12.5,37,0.00,,,0.00,WUHU216HW,2013-07-11 09:49:00,
2013-07-11 03:50:00,67.7,40.3,29.68,NW,315,7.8,12.5,37,0.00,,,0.00,WUHU216HW,2013-07-11 09:50:00,
2013-07-11 03:51:00,67.7,39.6,29.68,NW,315,7.6,12.5,36,0.00,,,0.00,WUHU216HW,2013-07-11 09:51:00,
2013-07-11 03:52:00,67.7,39.6,29.68,NW,315,6.5,12.5,36,0.00,,,0.00,WUHU216HW,2013-07-11 09:52:00,
2013-07-11 03:54:00,68.0,39.9,29.68,NNW,338,6.0,12.5,36,0.00,,,0.00,WUHU216HW,2013-07-11 09:54:00,
2013-07-11 03:55:00,68.0,39.2,29.68,WNW,293,6.9,11.4,35,0.00,,,0.00,WUHU216HW,2013-07-11 09:55:00,
2013-07-11 03:56:00,68.0,39.2,29.68,WNW,293,5.4,9.2,35,0.00,,,0.00,WUHU216HW,2013-07-11 09:56:00,
2013-07-11 03:57:00,68.2,39.3,29.68,West,270,5.4,9.2,35,0.00,,,0.00,WUHU216HW,2013-07-11 09:57:00,
2013-07-11 03:59:00,68.0,39.2,29.68,West,270,3.8,8.5,35,0.00,,,0.00,WUHU216HW,2013-07-11 09:59:00,
2013-07-11 04:00:00,68.0,39.9,29.68,West,270,4.9,8.5,36,0.00,,,0.00,WUHU216HW,2013-07-11 10:00:00,
2013-07-11 04:01:00,67.9,39.7,29.68,West,270,4.0,8.5,36,0.00,,,0.00,WUHU216HW,2013-07-11 10:01:00,
2013-07-11 04:02:00,67.9,39.7,29.68,West,270,4.3,8.5,36,0.00,,,0.00,WUHU216HW,2013-07-11 10:02:00,
2013-07-11 04:04:00,67.5,40.1,29.68,West,270,5.8,7.2,37,0.00,,,0.00,WUHU216HW,2013-07-11 10:04:00,
2013-07-11 04:05:00,67.5,40.1,29.68,West,270,5.4,7.2,37,0.00,,,0.00,WUHU216HW,2013-07-11 10:05:00,
2013-07-11 04:06:00,67.3,40.0,29.68,West,270,3.8,6.3,37,0.00,,,0.00,WUHU216HW,2013-07-11 10:06:00,
2013-07-11 04:07:00,67.1,39.9,29.68,West,270,3.8,6.3,37,0.00,,,0.00,WUHU216HW,2013-07-11 10:07:00,
2013-07-11 04:09:00,67.0,39.0,29.68,West,270,4.7,6.3,36,0.00,,,0.00,WUHU216HW,2013-07-11 10:09:00,
2013-07-11 04:10:00,67.0,39.0,29.68,West,270,3.8,6.3,36,0.00,,,0.00,WUHU216HW,2013-07-11 10:10:00,
2013-07-11 04:12:00,67.0,39.7,29.68,WNW,293,4.0,6.3,37,0.00,,,0.00,WUHU216HW,2013-07-11 10:12:00,
2013-07-11 04:15:00,66.8,39.5,29.68,West,270,6.7,6.7,37,0.00,,,0.00,WUHU216HW,2013-07-11 10:15:00,
2013-07-11 04:17:00,66.8,38.8,29.67,West,270,6.5,7.2,36,0.00,,,0.00,WUHU216HW,2013-07-11 10:17:00,
2013-07-11 04:20:00,67.0,39.0,29.68,WNW,293,4.7,7.2,36,0.00,,,0.00,WUHU216HW,2013-07-11 10:20:00,
2013-07-11 04:22:00,67.3,40.0,29.67,NNW,338,3.6,7.2,37,0.00,,,0.00,WUHU216HW,2013-07-11 10:22:00,
2013-07-11 04:23:00,67.5,39.4,29.67,NW,315,3.8,7.2,36,0.00,,,0.00,WUHU216HW,2013-07-11 10:23:00,
2013-07-11 04:25:00,67.7,38.9,29.67,NW,315,2.7,7.2,35,0.00,,,0.00,WUHU216HW,2013-07-11 10:25:00,
2013-07-11 04:26:00,67.7,38.9,29.67,NW,315,2.5,7.2,35,0.00,,,0.00,WUHU216HW,2013-07-11 10:26:00,
2013-07-11 04:28:00,67.9,39.0,29.68,NNW,338,2.5,5.4,35,0.00,,,0.00,WUHU216HW,2013-07-11 10:28:00,
2013-07-11 04:29:00,67.9,39.0,29.68,NNW,338,2.0,5.4,35,0.00,,,0.00,WUHU216HW,2013-07-11 10:29:00,
2013-07-11 04:31:00,68.0,39.2,29.67,North,0,4.7,4.7,35,0.00,,,0.00,WUHU216HW,2013-07-11 10:31:00,
2013-07-11 04:33:00,68.0,39.2,29.68,North,0,4.9,4.9,35,0.00,,,0.00,WUHU216HW,2013-07-11 10:33:00,
2013-07-11 04:34:00,68.0,39.2,29.68,North,0,4.7,4.9,35,0.00,,,0.00,WUHU216HW,2013-07-11 10:34:00,
2013-07-11 04:35:00,67.9,39.0,29.68,North,0,2.5,4.9,35,0.00,,,0.00,WUHU216HW,2013-07-11 10:35:00,
2013-07-11 04:36:00,67.9,39.0,29.68,North,0,2.5,4.9,35,0.00,,,0.00,WUHU216HW,2013-07-11 10:36:00,
2013-07-11 04:38:00,68.0,39.2,29.68,North,0,3.4,5.8,35,0.00,,,0.00,WUHU216HW,2013-07-11 10:38:00,
2013-07-11 04:40:00,68.0,39.2,29.68,North,0,2.0,5.8,35,0.00,,,0.00,WUHU216HW,2013-07-11 10:40:00,
2013-07-11 04:41:00,68.0,39.2,29.68,NW,315,3.6,5.8,35,0.00,,,0.00,WUHU216HW,2013-07-11 10:41:00,
2013-07-11 04:44:00,67.5,39.4,29.68,North,0,3.4,5.8,36,0.00,,,0.00,WUHU216HW,2013-07-11 10:44:00,
2013-07-11 04:45:00,67.3,38.5,29.68,NW,315,1.1,5.8,35,0.00,,,0.00,WUHU216HW,2013-07-11 10:45:00,
2013-07-11 04:46:00,67.3,38.5,29.68,NNW,338,0.4,5.8,35,0.00,,,0.00,WUHU216HW,2013-07-11 10:46:00,
2013-07-11 04:49:00,67.7,38.9,29.68,NNE,23,1.3,4.0,35,0.00,,,0.00,WUHU216HW,2013-07-11 10:49:00,
2013-07-11 04:50:00,67.7,38.9,29.68,NNE,23,0.2,4.0,35,0.00,,,0.00,WUHU216HW,2013-07-11 10:50:00,
2013-07-11 04:51:00,67.9,39.0,29.68,WSW,248,1.8,4.0,35,0.00,,,0.00,WUHU216HW,2013-07-11 10:51:00,
2013-07-11 04:52:00,67.9,39.0,29.68,WSW,248,1.3,4.0,35,0.00,,,0.00,WUHU216HW,2013-07-11 10:52:00,
2013-07-11 04:54:00,67.7,38.9,29.68,North,0,0.2,3.4,35,0.00,,,0.00,WUHU216HW,2013-07-11 10:54:00,
2013-07-11 04:55:00,67.7,39.6,29.68,NNE,23,1.8,2.7,36,0.00,,,0.00,WUHU216HW,2013-07-11 10:55:00,
2013-07-11 04:56:00,67.7,38.9,29.68,NE,45,1.1,2.7,35,0.00,,,0.00,WUHU216HW,2013-07-11 10:56:00,
2013-07-11 04:57:00,67.7,38.9,29.68,North,0,0.9,2.7,35,0.00,,,0.00,WUHU216HW,2013-07-11 10:57:00,
2013-07-11 05:00:00,67.7,38.9,29.68,West,270,1.1,2.7,35,0.00,,,0.00,WUHU216HW,2013-07-11 11:00:00,
2013-07-11 05:01:00,67.7,38.9,29.68,WSW,248,1.8,2.7,35,0.00,,,0.00,WUHU216HW,2013-07-11 11:01:00,
2013-07-11 05:03:00,67.5,38.7,29.68,NNE,23,1.8,2.7,35,0.00,,,0.00,WUHU216HW,2013-07-11 11:03:00,
2013-07-11 05:05:00,67.9,39.0,29.68,North,0,3.1,4.5,35,0.00,,,0.00,WUHU216HW,2013-07-11 11:05:00,
2013-07-11 05:06:00,68.0,39.2,29.68,North,0,4.3,4.5,35,0.00,,,0.00,WUHU216HW,2013-07-11 11:06:00,
2013-07-11 05:08:00,68.0,39.2,29.69,NNE,23,5.6,6.7,35,0.00,,,0.00,WUHU216HW,2013-07-11 11:08:00,
2013-07-11 05:10:00,67.7,40.3,29.68,WNW,293,3.6,6.7,37,0.00,,,0.00,WUHU216HW,2013-07-11 11:10:00,
2013-07-11 05:11:00,67.7,40.3,29.68,WNW,293,3.6,6.7,37,0.00,,,0.00,WUHU216HW,2013-07-11 11:11:00,
2013-07-11 05:13:00,67.3,40.0,29.68,NNW,338,3.4,6.7,37,0.00,,,0.00,WUHU216HW,2013-07-11 11:13:00,
2013-07-11 05:16:00,66.8,39.5,29.68,North,0,2.5,6.7,37,0.00,,,0.00,WUHU216HW,2013-07-11 11:16:00,
2013-07-11 05:17:00,66.8,39.5,29.69,NNW,338,1.8,6.7,37,0.00,,,0.00,WUHU216HW,2013-07-11 11:17:00,
2013-07-11 05:19:00,66.8,38.8,29.69,North,0,1.1,5.1,36,0.00,,,0.00,WUHU216HW,2013-07-11 11:19:00,
2013-07-11 05:21:00,67.0,39.7,29.69,West,270,4.7,4.9,37,0.00,,,0.00,WUHU216HW,2013-07-11 11:21:00,
2013-07-11 05:22:00,66.8,39.5,29.69,WNW,293,3.8,4.7,37,0.00,,,0.00,WUHU216HW,2013-07-11 11:22:00,
2013-07-11 05:24:00,66.6,39.3,29.69,NW,315,1.8,4.7,37,0.00,,,0.00,WUHU216HW,2013-07-11 11:24:00,
2013-07-11 05:26:00,66.4,39.3,29.69,West,270,2.5,4.7,37,0.00,,,0.00,WUHU216HW,2013-07-11 11:26:00,
2013-07-11 05:27:00,66.4,39.3,29.69,West,270,6.0,6.0,37,0.00,,,0.00,WUHU216HW,2013-07-11 11:27:00,
2013-07-11 05:29:00,65.9,38.7,29.69,WSW,248,4.0,6.0,37,0.00,,,0.00,WUHU216HW,2013-07-11 11:29:00,
2013-07-11 05:31:00,65.7,38.6,29.69,WSW,248,4.0,6.0,37,0.00,,,0.00,WUHU216HW,2013-07-11 11:31:00,
2013-07-11 05:32:00,65.5,38.4,29.69,West,270,5.6,6.0,37,0.00,,,0.00,WUHU216HW,2013-07-11 11:32:00,
2013-07-11 05:34:00,65.2,38.8,29.69,West,270,2.5,6.0,38,0.00,,,0.00,WUHU216HW,2013-07-11 11:34:00,
2013-07-11 05:36:00,65.2,38.8,29.69,West,270,2.2,6.0,38,0.00,,,0.00,WUHU216HW,2013-07-11 11:36:00,
2013-07-11 05:37:00,65.2,39.5,29.69,WNW,293,3.4,6.0,39,0.00,,,0.00,WUHU216HW,2013-07-11 11:37:00,
2013-07-11 05:38:00,65.0,39.3,29.69,West,270,3.6,5.6,39,0.00,,,0.00,WUHU216HW,2013-07-11 11:38:00,
2013-07-11 05:40:00,64.8,39.3,29.69,SW,225,3.8,5.6,39,0.00,,,0.00,WUHU216HW,2013-07-11 11:40:00,
2013-07-11 05:41:00,64.8,39.3,29.69,SW,225,1.1,5.6,39,0.00,,,0.00,WUHU216HW,2013-07-11 11:41:00,
2013-07-11 05:42:00,64.8,39.3,29.69,SW,225,0.2,4.5,39,0.00,,,0.00,WUHU216HW,2013-07-11 11:42:00,
2013-07-11 05:43:00,64.8,39.3,29.69,East,90,1.1,4.5,39,0.00,,,0.00,WUHU216HW,2013-07-11 11:43:00,
2013-07-11 05:45:00,65.0,39.3,29.69,ENE,68,0.0,4.5,39,0.00,,,0.00,WUHU216HW,2013-07-11 11:45:00,
2013-07-11 05:46:00,64.8,39.3,29.70,WSW,248,3.1,4.5,39,0.00,,,0.00,WUHU216HW,2013-07-11 11:46:00,
2013-07-11 05:48:00,64.8,39.3,29.70,South,180,4.7,4.7,39,0.00,,,0.00,WUHU216HW,2013-07-11 11:48:00,
2013-07-11 05:50:00,64.6,39.8,29.70,SSW,203,3.6,4.7,40,0.00,,,0.00,WUHU216HW,2013-07-11 11:50:00,
2013-07-11 05:51:00,64.6,39.8,29.70,SSW,203,1.8,4.7,40,0.00,,,0.00,WUHU216HW,2013-07-11 11:51:00,
2013-07-11 05:53:00,64.6,39.8,29.70,SW,225,2.0,4.7,40,0.00,,,0.00,WUHU216HW,2013-07-11 11:53:00,
2013-07-11 05:54:00,64.8,40.0,29.70,WSW,248,3.8,4.7,40,0.00,,,0.00,WUHU216HW,2013-07-11 11:54:00,
2013-07-11 05:55:00,64.6,39.8,29.70,SW,225,4.3,4.7,40,0.00,,,0.00,WUHU216HW,2013-07-11 11:55:00,
2013-07-11 05:56:00,64.6,39.8,29.70,SSW,203,3.6,4.7,40,0.00,,,0.00,WUHU216HW,2013-07-11 11:56:00,
2013-07-11 05:58:00,64.6,39.8,29.70,SSW,203,3.4,4.7,40,0.00,,,0.00,WUHU216HW,2013-07-11 11:58:00,
2013-07-11 05:59:00,64.8,40.0,29.70,SSW,203,3.1,4.7,40,0.00,,,0.00,WUHU216HW,2013-07-11 11:59:00,
2013-07-11 06:01:00,64.6,39.8,29.70,SSW,203,3.4,4.7,40,0.00,,,0.00,WUHU216HW,2013-07-11 12:01:00,
2013-07-11 06:02:00,64.8,40.0,29.70,SSW,203,2.9,4.7,40,0.00,,,0.00,WUHU216HW,2013-07-11 12:02:00,
2013-07-11 06:03:00,64.8,40.0,29.70,SSW,203,2.9,4.7,40,0.00,,,0.00,WUHU216HW,2013-07-11 12:03:00,
2013-07-11 06:04:00,64.8,40.0,29.70,SW,225,4.0,4.7,40,0.00,,,0.00,WUHU216HW,2013-07-11 12:04:00,
2013-07-11 06:06:00,65.0,40.1,29.70,WSW,248,3.4,4.0,40,0.00,,,0.00,WUHU216HW,2013-07-11 12:06:00,
2013-07-11 06:07:00,65.2,40.2,29.70,WSW,248,3.4,4.0,40,0.00,,,0.00,WUHU216HW,2013-07-11 12:07:00,
2013-07-11 06:08:00,64.8,40.0,29.70,SW,225,2.5,4.0,40,0.00,,,0.00,WUHU216HW,2013-07-11 12:08:00,
2013-07-11 06:09:00,65.0,40.1,29.70,SW,225,2.5,4.0,40,0.00,,,0.00,WUHU216HW,2013-07-11 12:09:00,
2013-07-11 06:11:00,64.8,40.0,29.70,SW,225,3.1,4.0,40,0.00,,,0.00,WUHU216HW,2013-07-11 12:11:00,
2013-07-11 06:12:00,64.8,40.0,29.70,WSW,248,3.8,4.0,40,0.00,,,0.00,WUHU216HW,2013-07-11 12:12:00,
2013-07-11 06:13:00,64.8,40.0,29.70,WSW,248,3.8,4.7,40,0.00,,,0.00,WUHU216HW,2013-07-11 12:13:00,
2013-07-11 06:14:00,64.8,40.0,29.70,WSW,248,3.6,4.7,40,0.00,,,0.00,WUHU216HW,2013-07-11 12:14:00,
2013-07-11 06:16:00,64.8,40.0,29.70,WSW,248,3.8,4.7,40,0.00,,,0.00,WUHU216HW,2013-07-11 12:16:00,
2013-07-11 06:17:00,64.8,40.0,29.70,WSW,248,3.8,4.7,40,0.00,,,0.00,WUHU216HW,2013-07-11 12:17:00,
2013-07-11 06:18:00,64.8,40.0,29.70,WSW,248,4.7,4.7,40,0.00,,,0.00,WUHU216HW,2013-07-11 12:18:00,
2013-07-11 06:20:00,64.6,41.0,29.70,West,270,4.7,6.0,42,0.00,,,0.00,WUHU216HW,2013-07-11 12:20:00,
2013-07-11 06:21:00,64.4,40.8,29.70,WSW,248,4.3,6.0,42,0.00,,,0.00,WUHU216HW,2013-07-11 12:21:00,
2013-07-11 06:22:00,64.4,40.8,29.70,WSW,248,4.3,6.0,42,0.00,,,0.00,WUHU216HW,2013-07-11 12:22:00,
2013-07-11 06:23:00,64.4,41.3,29.70,WSW,248,5.1,6.0,43,0.00,,,0.00,WUHU216HW,2013-07-11 12:23:00,
2013-07-11 06:24:00,64.4,41.3,29.70,WSW,248,4.7,6.0,43,0.00,,,0.00,WUHU216HW,2013-07-11 12:24:00,
2013-07-11 06:25:00,64.4,41.3,29.70,WSW,248,3.8,6.0,43,0.00,,,0.00,WUHU216HW,2013-07-11 12:25:00,
2013-07-11 06:27:00,64.3,41.1,29.70,WSW,248,4.5,6.0,43,0.00,,,0.00,WUHU216HW,2013-07-11 12:27:00,
2013-07-11 06:28:00,64.4,41.3,29.70,WSW,248,5.4,6.0,43,0.00,,,0.00,WUHU216HW,2013-07-11 12:28:00,
2013-07-11 06:29:00,64.4,41.3,29.70,West,270,4.9,6.0,43,0.00,,,0.00,WUHU216HW,2013-07-11 12:29:00,
2013-07-11 06:31:00,64.4,41.3,29.70,WSW,248,5.4,6.0,43,0.00,,,0.00,WUHU216HW,2013-07-11 12:31:00,
2013-07-11 06:32:00,64.6,41.5,29.70,WSW,248,4.0,6.0,43,0.00,,,0.00,WUHU216HW,2013-07-11 12:32:00,
2013-07-11 06:33:00,64.6,41.5,29.70,WSW,248,3.4,6.0,43,0.00,,,0.00,WUHU216HW,2013-07-11 12:33:00,
2013-07-11 06:34:00,64.6,41.5,29.70,WSW,248,4.0,6.0,43,0.00,,,0.00,WUHU216HW,2013-07-11 12:34:00,
2013-07-11 06:36:00,64.8,41.7,29.70,WSW,248,4.0,6.0,43,0.00,,,0.00,WUHU216HW,2013-07-11 12:36:00,
2013-07-11 06:37:00,64.8,41.7,29.71,WSW,248,4.7,6.0,43,0.00,,,0.00,WUHU216HW,2013-07-11 12:37:00,
2013-07-11 06:38:00,64.8,41.7,29.71,WSW,248,4.5,6.0,43,0.00,,,0.00,WUHU216HW,2013-07-11 12:38:00,
2013-07-11 06:39:00,65.0,42.4,29.71,WSW,248,5.4,6.0,44,0.00,,,0.00,WUHU216HW,2013-07-11 12:39:00,
2013-07-11 06:41:00,65.2,42.6,29.71,WSW,248,4.0,5.4,44,0.00,,,0.00,WUHU216HW,2013-07-11 12:41:00,
2013-07-11 06:42:00,65.3,42.8,29.71,WSW,248,4.9,5.4,44,0.00,,,0.00,WUHU216HW,2013-07-11 12:42:00,
2013-07-11 06:43:00,65.3,42.8,29.71,WSW,248,4.9,5.4,44,0.00,,,0.00,WUHU216HW,2013-07-11 12:43:00,
2013-07-11 06:44:00,65.5,42.9,29.71,WSW,248,3.6,5.4,44,0.00,,,0.00,WUHU216HW,2013-07-11 12:44:00,
2013-07-11 06:46:00,65.7,42.5,29.71,WSW,248,2.7,5.4,43,0.00,,,0.00,WUHU216HW,2013-07-11 12:46:00,
2013-07-11 06:47:00,65.9,42.7,29.71,WSW,248,4.0,5.4,43,0.00,,,0.00,WUHU216HW,2013-07-11 12:47:00,
2013-07-11 06:48:00,65.9,42.7,29.71,WSW,248,3.6,5.4,43,0.00,,,0.00,WUHU216HW,2013-07-11 12:48:00,
2013-07-11 06:49:00,65.9,43.3,29.71,West,270,3.6,5.4,44,0.00,,,0.00,WUHU216HW,2013-07-11 12:49:00,
2013-07-11 06:50:00,66.1,43.5,29.71,WSW,248,4.7,4.9,44,0.00,,,0.00,WUHU216HW,2013-07-11 12:50:00,
2013-07-11 06:51:00,66.1,42.9,29.71,WSW,248,4.0,4.9,43,0.00,,,0.00,WUHU216HW,2013-07-11 12:51:00,
2013-07-11 06:53:00,66.2,43.0,29.71,WSW,248,4.0,4.9,43,0.00,,,0.00,WUHU216HW,2013-07-11 12:53:00,
2013-07-11 06:54:00,66.2,43.0,29.71,WSW,248,4.0,4.7,43,0.00,,,0.00,WUHU216HW,2013-07-11 12:54:00,
2013-07-11 06:55:00,66.4,43.2,29.71,WSW,248,4.0,4.7,43,0.00,,,0.00,WUHU216HW,2013-07-11 12:55:00,
2013-07-11 06:58:00,66.6,43.3,29.71,WSW,248,2.5,4.7,43,0.00,,,0.00,WUHU216HW,2013-07-11 12:58:00,
2013-07-11 06:59:00,66.6,43.3,29.71,WSW,248,3.4,4.7,43,0.00,,,0.00,WUHU216HW,2013-07-11 12:59:00,
2013-07-11 07:01:00,66.6,43.3,29.71,WSW,248,4.9,4.9,43,0.00,,,0.00,WUHU216HW,2013-07-11 13:01:00,
2013-07-11 07:03:00,66.8,43.5,29.71,WSW,248,3.6,4.9,43,0.00,,,0.00,WUHU216HW,2013-07-11 13:03:00,
2013-07-11 07:04:00,67.0,43.7,29.71,WSW,248,3.4,4.9,43,0.00,,,0.00,WUHU216HW,2013-07-11 13:04:00,
2013-07-11 07:05:00,67.0,43.7,29.71,WSW,248,2.9,4.9,43,0.00,,,0.00,WUHU216HW,2013-07-11 13:05:00,
2013-07-11 07:06:00,67.0,43.7,29.71,WSW,248,3.1,4.9,43,0.00,,,0.00,WUHU216HW,2013-07-11 13:06:00,
2013-07-11 07:08:00,67.0,43.7,29.71,WSW,248,4.3,4.9,43,0.00,,,0.00,WUHU216HW,2013-07-11 13:08:00,
2013-07-11 07:09:00,67.1,44.4,29.71,WSW,248,3.1,4.9,44,0.00,,,0.00,WUHU216HW,2013-07-11 13:09:00,
2013-07-11 07:11:00,67.3,44.6,29.71,SW,225,2.5,4.9,44,0.00,,,0.00,WUHU216HW,2013-07-11 13:11:00,
2013-07-11 07:14:00,67.3,44.0,29.71,SW,225,2.2,4.3,43,0.00,,,0.00,WUHU216HW,2013-07-11 13:14:00,
2013-07-11 07:16:00,67.7,44.3,29.71,SSW,203,2.2,4.3,43,0.00,,,0.00,WUHU216HW,2013-07-11 13:16:00,
2013-07-11 07:19:00,67.9,44.5,29.71,SSW,203,2.5,4.3,43,0.00,,,0.00,WUHU216HW,2013-07-11 13:19:00,
2013-07-11 07:21:00,68.2,44.8,29.71,SSW,203,1.1,2.9,43,0.00,,,0.00,WUHU216HW,2013-07-11 13:21:00,
2013-07-11 07:24:00,68.6,44.6,29.71,SSW,203,0.0,2.9,42,0.00,,,0.00,WUHU216HW,2013-07-11 13:24:00,
2013-07-11 07:26:00,68.8,44.6,29.71,SSW,203,0.0,2.9,42,0.00,,,0.00,WUHU216HW,2013-07-11 13:26:00,
2013-07-11 07:27:00,68.9,44.8,29.71,SSW,203,0.0,2.9,42,0.00,,,0.00,WUHU216HW,2013-07-11 13:27:00,
2013-07-11 07:29:00,69.1,44.4,29.71,SE,135,0.2,2.7,41,0.00,,,0.00,WUHU216HW,2013-07-11 13:29:00,
2013-07-11 07:31:00,69.5,44.1,29.71,SE,135,0.9,1.3,40,0.00,,,0.00,WUHU216HW,2013-07-11 13:31:00,
2013-07-11 07:32:00,69.5,44.1,29.71,SE,135,0.4,1.1,40,0.00,,,0.00,WUHU216HW,2013-07-11 13:32:00,
2013-07-11 07:33:00,69.5,44.1,29.71,SE,135,1.6,1.6,40,0.00,,,0.00,WUHU216HW,2013-07-11 13:33:00,
2013-07-11 07:34:00,69.7,44.3,29.71,SSE,158,1.1,2.5,40,0.00,,,0.00,WUHU216HW,2013-07-11 13:34:00,
2013-07-11 07:36:00,69.7,44.3,29.71,SSE,158,0.4,2.5,40,0.00,,,0.00,WUHU216HW,2013-07-11 13:36:00,
2013-07-11 07:37:00,69.8,44.5,29.71,SSE,158,2.2,2.5,40,0.00,,,0.00,WUHU216HW,2013-07-11 13:37:00,
2013-07-11 07:40:00,70.2,44.0,29.71,SSE,158,2.5,3.1,39,0.00,,,0.00,WUHU216HW,2013-07-11 13:40:00,
2013-07-11 07:41:00,70.4,44.2,29.71,SE,135,2.5,3.1,39,0.00,,,0.00,WUHU216HW,2013-07-11 13:41:00,
2013-07-11 07:42:00,70.6,44.4,29.71,SSW,203,2.5,3.1,39,0.00,,,0.00,WUHU216HW,2013-07-11 13:42:00,
2013-07-11 07:45:00,70.9,43.9,29.71,SSE,158,2.0,3.1,38,0.00,,,0.00,WUHU216HW,2013-07-11 13:45:00,
2013-07-11 07:46:00,70.9,43.9,29.71,SSE,158,2.0,3.1,38,0.00,,,0.00,WUHU216HW,2013-07-11 13:46:00,
2013-07-11 07:47:00,71.1,44.1,29.71,ESE,113,1.8,3.1,38,0.00,,,0.00,WUHU216HW,2013-07-11 13:47:00,
2013-07-11 07:51:00,71.5,43.8,29.71,SSE,158,1.1,2.9,37,0.00,,,0.00,WUHU216HW,2013-07-11 13:51:00,
2013-07-11 07:52:00,71.6,43.8,29.71,ESE,113,1.8,2.9,37,0.00,,,0.00,WUHU216HW,2013-07-11 13:52:00,
2013-07-11 07:53:00,71.6,43.8,29.71,ENE,68,1.8,2.9,37,0.00,,,0.00,WUHU216HW,2013-07-11 13:53:00,
2013-07-11 07:57:00,72.0,43.5,29.71,ESE,113,1.6,2.5,36,0.00,,,0.00,WUHU216HW,2013-07-11 13:57:00,
2013-07-11 07:58:00,72.0,43.5,29.71,SE,135,1.3,2.5,36,0.00,,,0.00,WUHU216HW,2013-07-11 13:58:00,
2013-07-11 08:03:00,72.4,41.5,29.71,East,90,0.9,2.0,33,0.00,,,0.00,WUHU216HW,2013-07-11 14:03:00,
2013-07-11 08:04:00,72.4,42.3,29.71,East,90,0.7,1.8,34,0.00,,,0.00,WUHU216HW,2013-07-11 14:04:00,
2013-07-11 08:08:00,72.4,41.5,29.71,North,0,0.9,1.8,33,0.00,,,0.00,WUHU216HW,2013-07-11 14:08:00,
2013-07-11 08:09:00,72.5,41.7,29.71,North,0,2.5,2.5,33,0.00,,,0.00,WUHU216HW,2013-07-11 14:09:00,
2013-07-11 08:14:00,72.7,41.9,29.71,East,90,2.0,2.9,33,0.00,,,0.00,WUHU216HW,2013-07-11 14:14:00,
2013-07-11 08:19:00,72.9,41.9,29.71,NW,315,0.4,2.9,33,0.00,,,0.00,WUHU216HW,2013-07-11 14:19:00,
2013-07-11 08:20:00,73.1,42.1,29.71,NW,315,0.4,2.2,33,0.00,,,0.00,WUHU216HW,2013-07-11 14:20:00,
2013-07-11 08:25:00,73.3,42.3,29.71,North,0,2.5,2.5,33,0.00,,,0.00,WUHU216HW,2013-07-11 14:25:00,
2013-07-11 08:30:00,73.4,42.4,29.71,ENE,68,0.9,4.3,33,0.00,,,0.00,WUHU216HW,2013-07-11 14:30:00,
2013-07-11 08:31:00,73.4,42.4,29.71,NE,45,2.7,4.3,33,0.00,,,0.00,WUHU216HW,2013-07-11 14:31:00,
2013-07-11 08:35:00,73.6,42.6,29.71,ENE,68,0.4,4.3,33,0.00,,,0.00,WUHU216HW,2013-07-11 14:35:00,
2013-07-11 08:36:00,73.8,42.8,29.71,ENE,68,1.8,4.3,33,0.00,,,0.00,WUHU216HW,2013-07-11 14:36:00,
2013-07-11 08:40:00,74.0,42.9,29.71,ENE,68,3.4,4.9,33,0.00,,,0.00,WUHU216HW,2013-07-11 14:40:00,
2013-07-11 08:41:00,74.2,43.0,29.71,ENE,68,3.1,4.9,33,0.00,,,0.00,WUHU216HW,2013-07-11 14:41:00,
2013-07-11 08:42:00,74.2,43.0,29.71,ENE,68,2.0,4.9,33,0.00,,,0.00,WUHU216HW,2013-07-11 14:42:00,
2013-07-11 08:46:00,74.2,43.8,29.71,ENE,68,4.0,5.1,34,0.00,,,0.00,WUHU216HW,2013-07-11 14:46:00,
2013-07-11 08:47:00,74.2,43.8,29.71,ESE,113,2.0,5.1,34,0.00,,,0.00,WUHU216HW,2013-07-11 14:47:00,
2013-07-11 08:51:00,74.5,43.4,29.71,North,0,4.7,5.1,33,0.00,,,0.00,WUHU216HW,2013-07-11 14:51:00,
2013-07-11 08:52:00,74.5,43.4,29.71,North,0,2.9,5.1,33,0.00,,,0.00,WUHU216HW,2013-07-11 14:52:00,
2013-07-11 08:53:00,74.5,43.4,29.71,NNE,23,2.5,4.7,33,0.00,,,0.00,WUHU216HW,2013-07-11 14:53:00,
2013-07-11 08:57:00,74.5,43.4,29.71,NE,45,4.0,5.1,33,0.00,,,0.00,WUHU216HW,2013-07-11 14:57:00,
2013-07-11 08:58:00,74.5,43.4,29.71,NE,45,2.0,5.1,33,0.00,,,0.00,WUHU216HW,2013-07-11 14:58:00,
2013-07-11 09:02:00,74.9,44.5,29.71,NE,45,2.5,5.1,34,0.00,,,0.00,WUHU216HW,2013-07-11 15:02:00,
2013-07-11 09:03:00,74.9,43.8,29.71,NE,45,2.0,5.1,33,0.00,,,0.00,WUHU216HW,2013-07-11 15:03:00,
2013-07-11 09:05:00,74.9,44.5,29.71,ENE,68,4.0,5.1,34,0.00,,,0.00,WUHU216HW,2013-07-11 15:05:00,
2013-07-11 09:07:00,75.2,44.0,29.71,NE,45,4.3,6.0,33,0.00,,,0.00,WUHU216HW,2013-07-11 15:07:00,
2013-07-11 09:09:00,75.2,44.0,29.71,NE,45,3.6,6.0,33,0.00,,,0.00,WUHU216HW,2013-07-11 15:09:00,
2013-07-11 09:10:00,75.2,44.0,29.71,NE,45,2.9,6.0,33,0.00,,,0.00,WUHU216HW,2013-07-11 15:10:00,
2013-07-11 09:13:00,75.6,45.1,29.71,NE,45,2.9,6.0,34,0.00,,,0.00,WUHU216HW,2013-07-11 15:13:00,
2013-07-11 09:14:00,75.6,44.4,29.71,ENE,68,4.0,6.0,33,0.00,,,0.00,WUHU216HW,2013-07-11 15:14:00,
2013-07-11 09:17:00,76.0,44.6,29.71,NE,45,4.0,6.0,33,0.00,,,0.00,WUHU216HW,2013-07-11 15:17:00,
2013-07-11 09:18:00,76.0,43.9,29.71,NNE,23,2.7,4.9,32,0.00,,,0.00,WUHU216HW,2013-07-11 15:18:00,
2013-07-11 09:19:00,76.0,43.9,29.71,NNE,23,2.0,4.9,32,0.00,,,0.00,WUHU216HW,2013-07-11 15:19:00,
2013-07-11 09:21:00,76.1,44.1,29.71,ENE,68,4.0,4.9,32,0.00,,,0.00,WUHU216HW,2013-07-11 15:21:00,
2013-07-11 09:22:00,76.3,44.3,29.71,NNE,23,2.2,4.9,32,0.00,,,0.00,WUHU216HW,2013-07-11 15:22:00,
2013-07-11 09:24:00,76.5,44.4,29.71,NE,45,3.4,4.9,32,0.00,,,0.00,WUHU216HW,2013-07-11 15:24:00,
2013-07-11 09:25:00,76.5,44.4,29.71,NE,45,1.1,4.9,32,0.00,,,0.00,WUHU216HW,2013-07-11 15:25:00,
2013-07-11 09:27:00,76.7,43.8,29.71,North,0,3.6,4.9,31,0.00,,,0.00,WUHU216HW,2013-07-11 15:27:00,
2013-07-11 09:29:00,76.7,44.6,29.71,NE,45,3.8,4.0,32,0.00,,,0.00,WUHU216HW,2013-07-11 15:29:00,
2013-07-11 09:30:00,76.7,44.6,29.71,NNE,23,3.1,4.0,32,0.00,,,0.00,WUHU216HW,2013-07-11 15:30:00,
2013-07-11 09:33:00,77.0,44.9,29.71,NE,45,4.9,5.4,32,0.00,,,0.00,WUHU216HW,2013-07-11 15:33:00,
2013-07-11 09:34:00,77.0,44.9,29.71,ESE,113,1.6,5.4,32,0.00,,,0.00,WUHU216HW,2013-07-11 15:34:00,
2013-07-11 09:35:00,77.0,44.9,29.71,NNW,338,1.1,5.4,32,0.00,,,0.00,WUHU216HW,2013-07-11 15:35:00,
2013-07-11 09:38:00,77.4,45.2,29.71,ENE,68,0.4,5.4,32,0.00,,,0.00,WUHU216HW,2013-07-11 15:38:00,
2013-07-11 09:39:00,77.4,45.2,29.71,ENE,68,0.4,5.4,32,0.00,,,0.00,WUHU216HW,2013-07-11 15:39:00,
2013-07-11 09:40:00,77.8,45.5,29.71,SE,135,1.1,5.4,32,0.00,,,0.00,WUHU216HW,2013-07-11 15:40:00,
2013-07-11 09:41:00,77.8,44.7,29.71,SE,135,1.1,5.4,31,0.00,,,0.00,WUHU216HW,2013-07-11 15:41:00,
2013-07-11 09:44:00,78.1,45.8,29.71,NNE,23,3.4,3.6,32,0.00,,,0.00,WUHU216HW,2013-07-11 15:44:00,
2013-07-11 09:46:00,78.1,45.0,29.71,NE,45,6.5,6.5,31,0.00,,,0.00,WUHU216HW,2013-07-11 15:46:00,
2013-07-11 09:50:00,78.5,45.3,29.71,North,0,1.8,6.5,31,0.00,,,0.00,WUHU216HW,2013-07-11 15:50:00,
2013-07-11 09:51:00,78.7,43.7,29.71,North,0,3.4,6.5,29,0.00,,,0.00,WUHU216HW,2013-07-11 15:51:00,
2013-07-11 09:52:00,78.5,44.6,29.71,NNW,338,1.1,6.5,30,0.00,,,0.00,WUHU216HW,2013-07-11 15:52:00,
2013-07-11 09:55:00,78.5,44.6,29.71,NNW,338,3.4,6.5,30,0.00,,,0.00,WUHU216HW,2013-07-11 15:55:00,
2013-07-11 09:56:00,78.7,44.6,29.71,North,0,2.9,6.5,30,0.00,,,0.00,WUHU216HW,2013-07-11 15:56:00,
2013-07-11 09:57:00,78.5,44.6,29.71,North,0,4.7,4.7,30,0.00,,,0.00,WUHU216HW,2013-07-11 15:57:00,
2013-07-11 10:01:00,78.1,43.2,29.71,NNW,338,1.8,8.3,29,0.00,,,0.00,WUHU216HW,2013-07-11 16:01:00,
2013-07-11 10:02:00,78.1,43.2,29.71,NNW,338,1.8,8.3,29,0.00,,,0.00,WUHU216HW,2013-07-11 16:02:00,
2013-07-11 10:03:00,78.1,44.3,29.71,WSW,248,2.5,8.3,30,0.00,,,0.00,WUHU216HW,2013-07-11 16:03:00,
2013-07-11 10:07:00,78.5,44.6,29.71,NNW,338,3.6,8.3,30,0.00,,,0.00,WUHU216HW,2013-07-11 16:07:00,
2013-07-11 10:09:00,78.8,44.8,29.71,NE,45,4.5,6.3,30,0.00,,,0.00,WUHU216HW,2013-07-11 16:09:00,
2013-07-11 10:12:00,79.0,45.7,29.71,North,0,2.7,6.3,31,0.00,,,0.00,WUHU216HW,2013-07-11 16:12:00,
2013-07-11 10:13:00,79.2,45.9,29.71,NNW,338,4.7,6.3,31,0.00,,,0.00,WUHU216HW,2013-07-11 16:13:00,
2013-07-11 10:14:00,79.4,46.1,29.71,NNW,338,4.0,6.3,31,0.00,,,0.00,WUHU216HW,2013-07-11 16:14:00,
2013-07-11 10:17:00,79.6,46.3,29.71,North,0,4.7,6.3,31,0.00,,,0.00,WUHU216HW,2013-07-11 16:17:00,
2013-07-11 10:19:00,79.6,46.3,29.71,NNW,338,3.6,5.4,31,0.00,,,0.00,WUHU216HW,2013-07-11 16:19:00,
2013-07-11 10:20:00,79.6,45.5,29.71,NNE,23,1.8,5.4,30,0.00,,,0.00,WUHU216HW,2013-07-11 16:20:00,
2013-07-11 10:23:00,79.6,45.5,29.71,NNW,338,4.0,6.9,30,0.00,,,0.00,WUHU216HW,2013-07-11 16:23:00,
2013-07-11 10:25:00,79.6,45.5,29.71,North,0,3.1,6.9,30,0.00,,,0.00,WUHU216HW,2013-07-11 16:25:00,
2013-07-11 10:28:00,79.9,45.8,29.71,NW,315,5.8,8.1,30,0.00,,,0.00,WUHU216HW,2013-07-11 16:28:00,
2013-07-11 10:30:00,80.3,46.1,29.71,NNW,338,1.1,8.1,30,0.00,,,0.00,WUHU216HW,2013-07-11 16:30:00,
2013-07-11 10:34:00,80.8,45.5,29.71,NW,315,3.6,8.1,29,0.00,,,0.00,WUHU216HW,2013-07-11 16:34:00,
2013-07-11 10:35:00,80.8,45.5,29.71,NNW,338,2.7,6.7,29,0.00,,,0.00,WUHU216HW,2013-07-11 16:35:00,
2013-07-11 10:37:00,81.0,45.7,29.71,North,0,2.5,5.8,29,0.00,,,0.00,WUHU216HW,2013-07-11 16:37:00,
2013-07-11 10:39:00,81.4,46.0,29.71,NNE,23,3.8,5.6,29,0.00,,,0.00,WUHU216HW,2013-07-11 16:39:00,
2013-07-11 10:41:00,81.4,46.0,29.71,North,0,5.4,5.6,29,0.00,,,0.00,WUHU216HW,2013-07-11 16:41:00,
2013-07-11 10:42:00,81.5,46.1,29.71,North,0,1.8,5.6,29,0.00,,,0.00,WUHU216HW,2013-07-11 16:42:00,
2013-07-11 10:44:00,81.4,46.0,29.71,NNE,23,3.1,6.3,29,0.00,,,0.00,WUHU216HW,2013-07-11 16:44:00,
2013-07-11 10:47:00,81.4,46.0,29.71,NW,315,4.9,6.3,29,0.00,,,0.00,WUHU216HW,2013-07-11 16:47:00,
2013-07-11 10:48:00,81.4,46.0,29.71,NNW,338,4.7,6.3,29,0.00,,,0.00,WUHU216HW,2013-07-11 16:48:00,
2013-07-11 10:49:00,81.5,46.1,29.71,NNW,338,4.7,6.3,29,0.00,,,0.00,WUHU216HW,2013-07-11 16:49:00,
2013-07-11 10:52:00,81.7,45.2,29.71,ENE,68,2.9,6.3,28,0.00,,,0.00,WUHU216HW,2013-07-11 16:52:00,
2013-07-11 10:54:00,81.9,45.4,29.71,NE,45,6.9,6.9,28,0.00,,,0.00,WUHU216HW,2013-07-11 16:54:00,
2013-07-11 10:57:00,82.1,45.6,29.71,North,0,2.9,6.9,28,0.00,,,0.00,WUHU216HW,2013-07-11 16:57:00,
2013-07-11 10:59:00,82.1,45.6,29.71,North,0,2.5,6.9,28,0.00,,,0.00,WUHU216HW,2013-07-11 16:59:00,
2013-07-11 11:00:00,81.9,44.3,29.71,NNE,23,1.3,6.9,27,0.00,,,0.00,WUHU216HW,2013-07-11 17:00:00,
2013-07-11 11:03:00,81.9,44.3,29.72,NE,45,4.7,6.9,27,0.00,,,0.00,WUHU216HW,2013-07-11 17:03:00,
2013-07-11 11:05:00,81.9,45.4,29.72,East,90,1.1,5.4,28,0.00,,,0.00,WUHU216HW,2013-07-11 17:05:00,
2013-07-11 11:06:00,81.9,45.4,29.72,NE,45,5.4,5.6,28,0.00,,,0.00,WUHU216HW,2013-07-11 17:06:00,
2013-07-11 11:09:00,82.1,45.6,29.71,NE,45,3.8,7.6,28,0.00,,,0.00,WUHU216HW,2013-07-11 17:09:00,
2013-07-11 11:11:00,82.1,45.6,29.71,NE,45,3.8,7.6,28,0.00,,,0.00,WUHU216HW,2013-07-11 17:11:00,
2013-07-11 11:15:00,81.7,45.2,29.72,North,0,4.5,7.6,28,0.00,,,0.00,WUHU216HW,2013-07-11 17:15:00,
2013-07-11 11:16:00,81.7,45.2,29.72,North,0,1.8,7.6,28,0.00,,,0.00,WUHU216HW,2013-07-11 17:16:00,
2013-07-11 11:17:00,81.7,45.2,29.72,NE,45,4.0,7.6,28,0.00,,,0.00,WUHU216HW,2013-07-11 17:17:00,
2013-07-11 11:21:00,81.7,45.2,29.72,NNE,23,5.4,5.4,28,0.00,,,0.00,WUHU216HW,2013-07-11 17:21:00,
2013-07-11 11:22:00,81.7,45.2,29.72,NNW,338,4.0,5.4,28,0.00,,,0.00,WUHU216HW,2013-07-11 17:22:00,
2013-07-11 11:23:00,81.7,45.2,29.72,North,0,5.8,7.4,28,0.00,,,0.00,WUHU216HW,2013-07-11 17:23:00,
2013-07-11 11:26:00,81.4,44.9,29.72,North,0,4.5,8.3,28,0.00,,,0.00,WUHU216HW,2013-07-11 17:26:00,
2013-07-11 11:27:00,81.4,44.9,29.72,NNW,338,5.1,8.3,28,0.00,,,0.00,WUHU216HW,2013-07-11 17:27:00,
2013-07-11 11:29:00,81.0,44.6,29.72,North,0,1.6,8.3,28,0.00,,,0.00,WUHU216HW,2013-07-11 17:29:00,
2013-07-11 11:32:00,81.0,44.6,29.72,NW,315,1.8,8.3,28,0.00,,,0.00,WUHU216HW,2013-07-11 17:32:00,
2013-07-11 11:33:00,81.2,44.8,29.72,NNW,338,2.5,8.3,28,0.00,,,0.00,WUHU216HW,2013-07-11 17:33:00,
2013-07-11 11:35:00,81.4,44.9,29.71,NE,45,5.1,5.1,28,0.00,,,0.00,WUHU216HW,2013-07-11 17:35:00,
2013-07-11 11:37:00,81.5,44.0,29.71,NNE,23,4.7,5.1,27,0.00,,,0.00,WUHU216HW,2013-07-11 17:37:00,
2013-07-11 11:38:00,81.5,44.0,29.71,NNE,23,4.7,5.1,27,0.00,,,0.00,WUHU216HW,2013-07-11 17:38:00,
2013-07-11 11:41:00,81.5,45.1,29.71,NNE,23,4.7,5.1,28,0.00,,,0.00,WUHU216HW,2013-07-11 17:41:00,
2013-07-11 11:43:00,81.5,45.1,29.71,North,0,4.7,6.3,28,0.00,,,0.00,WUHU216HW,2013-07-11 17:43:00,
2013-07-11 11:45:00,81.4,44.9,29.72,North,0,3.4,6.3,28,0.00,,,0.00,WUHU216HW,2013-07-11 17:45:00,
2013-07-11 11:46:00,81.4,44.9,29.71,NNW,338,3.6,6.3,28,0.00,,,0.00,WUHU216HW,2013-07-11 17:46:00,
2013-07-11 11:49:00,81.0,44.6,29.72,North,0,3.4,6.3,28,0.00,,,0.00,WUHU216HW,2013-07-11 17:49:00,
2013-07-11 11:51:00,80.8,44.5,29.72,North,0,4.3,6.3,28,0.00,,,0.00,WUHU216HW,2013-07-11 17:51:00,
2013-07-11 11:54:00,81.0,44.6,29.72,North,0,0.0,5.4,28,0.00,,,0.00,WUHU216HW,2013-07-11 17:54:00,
2013-07-11 11:56:00,81.2,44.8,29.72,NNW,338,0.7,5.4,28,0.00,,,0.00,WUHU216HW,2013-07-11 17:56:00,
2013-07-11 12:00:00,81.9,45.4,29.72,NNE,23,1.6,4.3,28,0.00,,,0.00,WUHU216HW,2013-07-11 18:00:00,
2013-07-11 12:01:00,82.1,45.6,29.72,SW,225,1.1,4.3,28,0.00,,,0.00,WUHU216HW,2013-07-11 18:01:00,
2013-07-11 12:05:00,82.6,43.8,29.72,NNW,338,2.5,3.4,26,0.00,,,0.00,WUHU216HW,2013-07-11 18:05:00,
2013-07-11 12:06:00,82.6,43.8,29.72,NNW,338,2.5,3.4,26,0.00,,,0.00,WUHU216HW,2013-07-11 18:06:00,
2013-07-11 12:10:00,82.4,44.7,29.72,ENE,68,1.1,3.4,27,0.00,,,0.00,WUHU216HW,2013-07-11 18:10:00,
2013-07-11 12:12:00,82.4,44.7,29.72,ENE,68,1.1,3.4,27,0.00,,,0.00,WUHU216HW,2013-07-11 18:12:00,
2013-07-11 12:15:00,82.3,43.6,29.72,NNE,23,1.3,2.5,26,0.00,,,0.00,WUHU216HW,2013-07-11 18:15:00,
2013-07-11 12:17:00,82.3,43.6,29.72,North,0,0.4,2.5,26,0.00,,,0.00,WUHU216HW,2013-07-11 18:17:00,
2013-07-11 12:19:00,82.3,44.7,29.72,North,0,0.0,1.8,27,0.00,,,0.00,WUHU216HW,2013-07-11 18:19:00,
2013-07-11 12:21:00,82.6,46.0,29.72,South,180,3.6,3.6,28,0.00,,,0.00,WUHU216HW,2013-07-11 18:21:00,
2013-07-11 12:22:00,83.2,46.5,29.71,SSE,158,3.8,4.5,28,0.00,,,0.00,WUHU216HW,2013-07-11 18:22:00,
2013-07-11 12:24:00,83.3,46.6,29.71,South,180,5.4,5.4,28,0.00,,,0.00,WUHU216HW,2013-07-11 18:24:00,
2013-07-11 12:27:00,83.5,46.7,29.72,SSW,203,5.4,6.0,28,0.00,,,0.00,WUHU216HW,2013-07-11 18:27:00,
2013-07-11 12:29:00,83.9,47.1,29.72,South,180,8.3,8.3,28,0.00,,,0.00,WUHU216HW,2013-07-11 18:29:00,
2013-07-11 12:32:00,83.9,47.1,29.72,SSE,158,7.6,8.9,28,0.00,,,0.00,WUHU216HW,2013-07-11 18:32:00,
2013-07-11 12:35:00,83.9,47.1,29.72,SSE,158,5.4,8.9,28,0.00,,,0.00,WUHU216HW,2013-07-11 18:35:00,
2013-07-11 12:37:00,83.9,47.1,29.72,SSE,158,6.9,8.9,28,0.00,,,0.00,WUHU216HW,2013-07-11 18:37:00,
2013-07-11 12:40:00,84.2,47.3,29.72,ESE,113,7.4,8.9,28,0.00,,,0.00,WUHU216HW,2013-07-11 18:40:00,
2013-07-11 12:43:00,85.1,48.2,29.72,SSW,203,2.9,8.5,28,0.00,,,0.00,WUHU216HW,2013-07-11 18:43:00,
2013-07-11 12:45:00,85.3,46.2,29.72,WSW,248,5.6,7.4,26,0.00,,,0.00,WUHU216HW,2013-07-11 18:45:00,
2013-07-11 12:47:00,85.1,40.7,29.72,West,270,9.2,9.2,21,0.00,,,0.00,WUHU216HW,2013-07-11 18:47:00,
2013-07-11 12:48:00,84.8,40.4,29.71,WSW,248,8.7,12.3,21,0.00,,,0.00,WUHU216HW,2013-07-11 18:48:00,
2013-07-11 12:51:00,84.6,40.2,29.71,West,270,13.9,14.3,21,0.00,,,0.00,WUHU216HW,2013-07-11 18:51:00,
2013-07-11 12:52:00,84.2,40.0,29.71,WSW,248,13.2,14.3,21,0.00,,,0.00,WUHU216HW,2013-07-11 18:52:00,
2013-07-11 12:53:00,84.2,37.2,29.71,WSW,248,8.5,14.3,19,0.00,,,0.00,WUHU216HW,2013-07-11 18:53:00,
2013-07-11 12:54:00,84.1,39.8,29.71,SW,225,4.9,14.3,21,0.00,,,0.00,WUHU216HW,2013-07-11 18:54:00,
2013-07-11 12:56:00,83.9,39.7,29.71,WSW,248,10.3,14.3,21,0.00,,,0.00,WUHU216HW,2013-07-11 18:56:00,
2013-07-11 12:58:00,83.9,39.7,29.71,SW,225,7.6,14.3,21,0.00,,,0.00,WUHU216HW,2013-07-11 18:58:00,
2013-07-11 12:59:00,83.7,40.6,29.71,WSW,248,10.1,14.3,22,0.00,,,0.00,WUHU216HW,2013-07-11 18:59:00,
2013-07-11 13:00:00,83.7,39.5,29.71,WSW,248,13.9,14.3,21,0.00,,,0.00,WUHU216HW,2013-07-11 19:00:00,
2013-07-11 13:03:00,83.7,40.6,29.71,WSW,248,13.6,13.9,22,0.00,,,0.00,WUHU216HW,2013-07-11 19:03:00,
2013-07-11 13:04:00,83.7,39.5,29.71,WSW,248,17.9,17.9,21,0.00,,,0.00,WUHU216HW,2013-07-11 19:04:00,
2013-07-11 13:05:00,83.7,39.5,29.71,WSW,248,11.9,17.9,21,0.00,,,0.00,WUHU216HW,2013-07-11 19:05:00,
2013-07-11 13:10:00,83.5,40.4,29.71,SW,225,11.9,17.9,22,0.00,,,0.00,WUHU216HW,2013-07-11 19:10:00,
2013-07-11 13:12:00,83.7,40.6,29.71,SW,225,8.5,17.9,22,0.00,,,0.00,WUHU216HW,2013-07-11 19:12:00,
2013-07-11 13:14:00,83.7,40.6,29.71,SW,225,6.9,17.9,22,0.00,,,0.00,WUHU216HW,2013-07-11 19:14:00,
2013-07-11 13:15:00,83.9,40.7,29.71,SSE,158,10.5,15.2,22,0.00,,,0.00,WUHU216HW,2013-07-11 19:15:00,
2013-07-11 13:18:00,83.9,43.9,29.71,ESE,113,5.1,15.2,25,0.00,,,0.00,WUHU216HW,2013-07-11 19:18:00,
2013-07-11 13:19:00,83.9,43.9,29.71,SSE,158,6.9,12.1,25,0.00,,,0.00,WUHU216HW,2013-07-11 19:19:00,
2013-07-11 13:20:00,83.9,44.9,29.71,SE,135,5.8,11.2,26,0.00,,,0.00,WUHU216HW,2013-07-11 19:20:00,
2013-07-11 13:21:00,83.9,44.9,29.71,South,180,8.3,11.0,26,0.00,,,0.00,WUHU216HW,2013-07-11 19:21:00,
2013-07-11 13:24:00,83.3,44.5,29.71,SSE,158,7.4,10.5,26,0.00,,,0.00,WUHU216HW,2013-07-11 19:24:00,
2013-07-11 13:25:00,83.3,44.5,29.71,SSE,158,9.2,11.2,26,0.00,,,0.00,WUHU216HW,2013-07-11 19:25:00,
2013-07-11 13:27:00,83.2,44.3,29.71,ESE,113,7.4,11.2,26,0.00,,,0.00,WUHU216HW,2013-07-11 19:27:00,
2013-07-11 13:31:00,83.0,44.2,29.71,SE,135,11.0,12.8,26,0.00,,,0.00,WUHU216HW,2013-07-11 19:31:00,
2013-07-11 13:32:00,82.8,45.1,29.71,SSE,158,8.5,13.2,27,0.00,,,0.00,WUHU216HW,2013-07-11 19:32:00,
2013-07-11 13:36:00,82.6,46.0,29.71,SSE,158,7.6,13.2,28,0.00,,,0.00,WUHU216HW,2013-07-11 19:36:00,
2013-07-11 13:37:00,82.6,47.0,29.71,SSE,158,10.1,13.2,29,0.00,,,0.00,WUHU216HW,2013-07-11 19:37:00,
2013-07-11 13:38:00,82.6,47.0,29.71,SSE,158,10.1,13.2,29,0.00,,,0.00,WUHU216HW,2013-07-11 19:38:00,
2013-07-11 13:42:00,82.4,46.8,29.71,SE,135,6.5,11.6,29,0.00,,,0.00,WUHU216HW,2013-07-11 19:42:00,
2013-07-11 13:43:00,82.4,46.8,29.71,South,180,7.8,11.6,29,0.00,,,0.00,WUHU216HW,2013-07-11 19:43:00,
2013-07-11 13:44:00,82.4,46.8,29.71,SSE,158,9.2,11.6,29,0.00,,,0.00,WUHU216HW,2013-07-11 19:44:00,
2013-07-11 13:47:00,82.4,45.8,29.70,ESE,113,6.5,10.1,28,0.00,,,0.00,WUHU216HW,2013-07-11 19:47:00,
2013-07-11 13:49:00,82.4,43.8,29.70,SE,135,11.9,13.4,26,0.00,,,0.00,WUHU216HW,2013-07-11 19:49:00,
2013-07-11 13:50:00,82.4,43.8,29.70,SSE,158,12.1,13.4,26,0.00,,,0.00,WUHU216HW,2013-07-11 19:50:00,
2013-07-11 13:52:00,82.6,43.8,29.70,SSE,158,7.6,13.4,26,0.00,,,0.00,WUHU216HW,2013-07-11 19:52:00,
2013-07-11 13:55:00,82.8,44.0,29.70,SE,135,11.2,13.4,26,0.00,,,0.00,WUHU216HW,2013-07-11 19:55:00,
2013-07-11 13:56:00,82.8,44.0,29.70,SE,135,11.4,13.4,26,0.00,,,0.00,WUHU216HW,2013-07-11 19:56:00,
2013-07-11 13:57:00,82.8,44.0,29.70,SE,135,12.5,13.4,26,0.00,,,0.00,WUHU216HW,2013-07-11 19:57:00,
2013-07-11 13:58:00,82.8,44.0,29.70,SSE,158,12.1,13.4,26,0.00,,,0.00,WUHU216HW,2013-07-11 19:58:00,
2013-07-11 14:01:00,82.8,44.0,29.70,South,180,8.7,13.6,26,0.00,,,0.00,WUHU216HW,2013-07-11 20:01:00,
2013-07-11 14:03:00,83.0,43.1,29.70,SE,135,9.2,13.6,25,0.00,,,0.00,WUHU216HW,2013-07-11 20:03:00,
2013-07-11 14:04:00,83.0,44.2,29.70,SE,135,14.5,14.5,26,0.00,,,0.00,WUHU216HW,2013-07-11 20:04:00,
2013-07-11 14:05:00,83.0,44.2,29.70,SSE,158,13.4,15.7,26,0.00,,,0.00,WUHU216HW,2013-07-11 20:05:00,
2013-07-11 14:06:00,83.0,44.2,29.70,SSE,158,13.4,15.7,26,0.00,,,0.00,WUHU216HW,2013-07-11 20:06:00,
2013-07-11 14:08:00,83.0,44.2,29.70,SE,135,14.5,15.7,26,0.00,,,0.00,WUHU216HW,2013-07-11 20:08:00,
2013-07-11 14:09:00,83.0,44.2,29.70,SE,135,10.5,15.7,26,0.00,,,0.00,WUHU216HW,2013-07-11 20:09:00,
2013-07-11 14:10:00,83.0,44.2,29.70,SSE,158,8.9,15.7,26,0.00,,,0.00,WUHU216HW,2013-07-11 20:10:00,
2013-07-11 14:12:00,83.2,44.3,29.70,SE,135,8.7,15.7,26,0.00,,,0.00,WUHU216HW,2013-07-11 20:12:00,
2013-07-11 14:13:00,83.3,43.5,29.70,South,180,8.9,15.7,25,0.00,,,0.00,WUHU216HW,2013-07-11 20:13:00,
2013-07-11 14:14:00,83.3,43.5,29.70,South,180,8.9,15.7,25,0.00,,,0.00,WUHU216HW,2013-07-11 20:14:00,
2013-07-11 14:17:00,83.7,44.8,29.70,South,180,6.9,14.5,26,0.00,,,0.00,WUHU216HW,2013-07-11 20:17:00,
2013-07-11 14:19:00,83.9,43.9,29.70,SSW,203,7.6,12.3,25,0.00,,,0.00,WUHU216HW,2013-07-11 20:19:00,
2013-07-11 14:23:00,84.6,43.5,29.69,SSW,203,13.6,13.6,24,0.00,,,0.00,WUHU216HW,2013-07-11 20:23:00,
2013-07-11 14:24:00,84.6,42.4,29.69,SW,225,13.4,13.6,23,0.00,,,0.00,WUHU216HW,2013-07-11 20:24:00,
2013-07-11 14:28:00,85.1,41.8,29.69,SSW,203,15.4,15.4,22,0.00,,,0.00,WUHU216HW,2013-07-11 20:28:00,
2013-07-11 14:29:00,85.3,41.9,29.69,SW,225,11.9,16.1,22,0.00,,,0.00,WUHU216HW,2013-07-11 20:29:00,
2013-07-11 14:34:00,85.5,41.0,29.70,SW,225,9.8,16.1,21,0.00,,,0.00,WUHU216HW,2013-07-11 20:34:00,
2013-07-11 14:35:00,85.5,41.0,29.69,SSW,203,8.5,16.1,21,0.00,,,0.00,WUHU216HW,2013-07-11 20:35:00,
2013-07-11 14:39:00,85.9,41.2,29.69,SW,225,3.4,14.8,21,0.00,,,0.00,WUHU216HW,2013-07-11 20:39:00,
2013-07-11 14:40:00,86.0,41.4,29.69,SSW,203,7.6,14.5,21,0.00,,,0.00,WUHU216HW,2013-07-11 20:40:00,
2013-07-11 14:45:00,86.6,41.9,29.69,South,180,6.5,9.4,21,0.00,,,0.00,WUHU216HW,2013-07-11 20:45:00,
2013-07-11 14:46:00,86.6,41.9,29.69,SSE,158,6.0,9.4,21,0.00,,,0.00,WUHU216HW,2013-07-11 20:46:00,
2013-07-11 14:51:00,86.8,41.0,29.69,SW,225,13.9,16.3,20,0.00,,,0.00,WUHU216HW,2013-07-11 20:51:00,
2013-07-11 14:56:00,86.8,39.2,29.69,SSW,203,11.6,16.3,19,0.00,,,0.00,WUHU216HW,2013-07-11 20:56:00,
2013-07-11 15:01:00,86.8,39.2,29.69,SSW,203,9.4,14.3,19,0.00,,,0.00,WUHU216HW,2013-07-11 21:01:00,
2013-07-11 15:06:00,87.5,39.9,29.69,SSW,203,9.2,15.7,19,0.00,,,0.00,WUHU216HW,2013-07-11 21:06:00,
2013-07-11 15:07:00,87.5,39.9,29.69,SW,225,14.5,15.7,19,0.00,,,0.00,WUHU216HW,2013-07-11 21:07:00,
2013-07-11 15:08:00,87.5,39.9,29.69,SSW,203,10.5,15.7,19,0.00,,,0.00,WUHU216HW,2013-07-11 21:08:00,
2013-07-11 15:11:00,87.5,39.9,29.69,SSW,203,12.8,16.3,19,0.00,,,0.00,WUHU216HW,2013-07-11 21:11:00,
2013-07-11 15:12:00,87.3,38.0,29.69,SSW,203,12.8,16.3,18,0.00,,,0.00,WUHU216HW,2013-07-11 21:12:00,
2013-07-11 15:13:00,87.3,39.7,29.69,South,180,14.8,16.3,19,0.00,,,0.00,WUHU216HW,2013-07-11 21:13:00,
2013-07-11 15:17:00,87.1,39.6,29.69,SSW,203,7.8,16.3,19,0.00,,,0.00,WUHU216HW,2013-07-11 21:17:00,
2013-07-11 15:18:00,87.1,39.6,29.69,SSW,203,12.5,16.3,19,0.00,,,0.00,WUHU216HW,2013-07-11 21:18:00,
2013-07-11 15:19:00,86.9,37.7,29.69,South,180,17.9,17.9,18,0.00,,,0.00,WUHU216HW,2013-07-11 21:19:00,
2013-07-11 15:22:00,86.8,37.5,29.68,SSE,158,11.6,17.9,18,0.00,,,0.00,WUHU216HW,2013-07-11 21:22:00,
2013-07-11 15:23:00,86.6,39.1,29.68,SW,225,11.9,17.9,19,0.00,,,0.00,WUHU216HW,2013-07-11 21:23:00,
2013-07-11 15:24:00,86.4,39.0,29.69,SSW,203,14.8,17.9,19,0.00,,,0.00,WUHU216HW,2013-07-11 21:24:00,
2013-07-11 15:27:00,86.2,38.8,29.68,SSW,203,6.9,17.9,19,0.00,,,0.00,WUHU216HW,2013-07-11 21:27:00,
2013-07-11 15:29:00,86.2,38.8,29.68,SW,225,9.8,17.9,19,0.00,,,0.00,WUHU216HW,2013-07-11 21:29:00,
2013-07-11 15:33:00,86.2,38.8,29.68,SW,225,14.3,17.9,19,0.00,,,0.00,WUHU216HW,2013-07-11 21:33:00,
2013-07-11 15:34:00,86.2,38.8,29.68,SW,225,16.3,17.9,19,0.00,,,0.00,WUHU216HW,2013-07-11 21:34:00,
2013-07-11 15:35:00,86.2,38.8,29.68,SW,225,17.2,17.4,19,0.00,,,0.00,WUHU216HW,2013-07-11 21:35:00,
2013-07-11 15:38:00,86.0,38.6,29.68,SW,225,14.3,18.6,19,0.00,,,0.00,WUHU216HW,2013-07-11 21:38:00,
2013-07-11 15:39:00,86.0,38.6,29.68,SSW,203,13.6,18.6,19,0.00,,,0.00,WUHU216HW,2013-07-11 21:39:00,
2013-07-11 15:40:00,86.0,38.6,29.68,SW,225,14.3,18.6,19,0.00,,,0.00,WUHU216HW,2013-07-11 21:40:00,
2013-07-11 15:44:00,85.7,38.4,29.68,SW,225,14.3,19.5,19,0.00,,,0.00,WUHU216HW,2013-07-11 21:44:00,
2013-07-11 15:45:00,85.5,38.2,29.68,SSW,203,11.6,19.5,19,0.00,,,0.00,WUHU216HW,2013-07-11 21:45:00,
2013-07-11 15:50:00,85.5,38.2,29.68,SSW,203,11.6,19.5,19,0.00,,,0.00,WUHU216HW,2013-07-11 21:50:00,
2013-07-11 15:52:00,85.3,39.8,29.68,SW,225,16.8,18.1,20,0.00,,,0.00,WUHU216HW,2013-07-11 21:52:00,
2013-07-11 15:55:00,85.0,37.7,29.68,SW,225,14.1,19.7,19,0.00,,,0.00,WUHU216HW,2013-07-11 21:55:00,
2013-07-11 15:56:00,85.0,37.7,29.68,SW,225,14.1,19.7,19,0.00,,,0.00,WUHU216HW,2013-07-11 21:56:00,
2013-07-11 15:57:00,85.0,39.4,29.68,WSW,248,9.8,19.7,20,0.00,,,0.00,WUHU216HW,2013-07-11 21:57:00,
2013-07-11 16:01:00,85.0,40.5,29.68,SW,225,10.5,19.7,21,0.00,,,0.00,WUHU216HW,2013-07-11 22:01:00,
2013-07-11 16:02:00,84.8,40.4,29.68,SW,225,11.6,19.7,21,0.00,,,0.00,WUHU216HW,2013-07-11 22:02:00,
2013-07-11 16:03:00,85.0,40.5,29.68,SW,225,11.0,18.6,21,0.00,,,0.00,WUHU216HW,2013-07-11 22:03:00,
2013-07-11 16:06:00,84.6,40.2,29.68,SW,225,15.4,16.8,21,0.00,,,0.00,WUHU216HW,2013-07-11 22:06:00,
2013-07-11 16:07:00,84.6,39.2,29.68,SW,225,15.0,16.8,20,0.00,,,0.00,WUHU216HW,2013-07-11 22:07:00,
2013-07-11 16:08:00,84.6,39.2,29.68,WSW,248,13.2,16.8,20,0.00,,,0.00,WUHU216HW,2013-07-11 22:08:00,
2013-07-11 16:12:00,84.2,40.0,29.67,SW,225,15.9,19.9,21,0.00,,,0.00,WUHU216HW,2013-07-11 22:12:00,
2013-07-11 16:14:00,84.1,39.8,29.68,SW,225,11.6,19.9,21,0.00,,,0.00,WUHU216HW,2013-07-11 22:14:00,
2013-07-11 16:18:00,83.9,39.7,29.68,SW,225,17.7,19.9,21,0.00,,,0.00,WUHU216HW,2013-07-11 22:18:00,
2013-07-11 16:19:00,83.7,39.5,29.67,SSW,203,14.1,20.4,21,0.00,,,0.00,WUHU216HW,2013-07-11 22:19:00,
2013-07-11 16:20:00,83.7,39.5,29.67,SW,225,17.0,20.4,21,0.00,,,0.00,WUHU216HW,2013-07-11 22:20:00,
2013-07-11 16:23:00,83.5,39.3,29.67,SSW,203,16.1,20.8,21,0.00,,,0.00,WUHU216HW,2013-07-11 22:23:00,
2013-07-11 16:25:00,83.3,39.3,29.67,SSW,203,17.7,22.8,21,0.00,,,0.00,WUHU216HW,2013-07-11 22:25:00,
2013-07-11 16:26:00,83.3,39.3,29.67,SW,225,17.4,22.8,21,0.00,,,0.00,WUHU216HW,2013-07-11 22:26:00,
2013-07-11 16:29:00,83.2,39.1,29.67,SW,225,20.8,22.8,21,0.00,,,0.00,WUHU216HW,2013-07-11 22:29:00,
2013-07-11 16:30:00,83.0,38.9,29.67,SW,225,17.9,22.8,21,0.00,,,0.00,WUHU216HW,2013-07-11 22:30:00,
2013-07-11 16:31:00,82.8,38.8,29.68,SW,225,15.7,22.8,21,0.00,,,0.00,WUHU216HW,2013-07-11 22:31:00,
2013-07-11 16:32:00,82.8,38.8,29.68,SW,225,13.0,22.8,21,0.00,,,0.00,WUHU216HW,2013-07-11 22:32:00,
2013-07-11 16:34:00,82.8,38.8,29.68,WSW,248,17.9,22.8,21,0.00,,,0.00,WUHU216HW,2013-07-11 22:34:00,
2013-07-11 16:36:00,82.6,38.6,29.68,SSW,203,9.8,21.5,21,0.00,,,0.00,WUHU216HW,2013-07-11 22:36:00,
2013-07-11 16:37:00,82.6,39.7,29.67,WSW,248,16.8,21.5,22,0.00,,,0.00,WUHU216HW,2013-07-11 22:37:00,
2013-07-11 16:39:00,82.4,38.5,29.68,SSW,203,15.9,23.7,21,0.00,,,0.00,WUHU216HW,2013-07-11 22:39:00,
2013-07-11 16:41:00,82.4,39.5,29.68,SSW,203,15.7,23.7,22,0.00,,,0.00,WUHU216HW,2013-07-11 22:41:00,
2013-07-11 16:42:00,82.6,39.7,29.68,WSW,248,17.2,23.7,22,0.00,,,0.00,WUHU216HW,2013-07-11 22:42:00,
2013-07-11 16:44:00,82.4,39.5,29.68,SW,225,19.2,23.7,22,0.00,,,0.00,WUHU216HW,2013-07-11 22:44:00,
2013-07-11 16:46:00,82.4,38.5,29.68,SW,225,16.1,23.7,21,0.00,,,0.00,WUHU216HW,2013-07-11 22:46:00,
2013-07-11 16:48:00,82.6,39.7,29.67,SSW,203,15.7,22.6,22,0.00,,,0.00,WUHU216HW,2013-07-11 22:48:00,
2013-07-11 16:49:00,82.6,39.7,29.67,SSW,203,15.7,22.6,22,0.00,,,0.00,WUHU216HW,2013-07-11 22:49:00,
2013-07-11 16:50:00,82.6,39.7,29.68,SSW,203,15.7,22.6,22,0.00,,,0.00,WUHU216HW,2013-07-11 22:50:00,
2013-07-11 16:51:00,82.4,39.5,29.68,WSW,248,15.9,22.6,22,0.00,,,0.00,WUHU216HW,2013-07-11 22:51:00,
2013-07-11 16:54:00,82.6,39.7,29.68,SW,225,13.4,19.2,22,0.00,,,0.00,WUHU216HW,2013-07-11 22:54:00,
2013-07-11 16:55:00,82.6,39.7,29.68,SW,225,15.0,19.0,22,0.00,,,0.00,WUHU216HW,2013-07-11 22:55:00,
2013-07-11 16:57:00,82.6,39.7,29.68,SW,225,15.0,19.0,22,0.00,,,0.00,WUHU216HW,2013-07-11 22:57:00,
2013-07-11 16:59:00,82.4,39.5,29.68,SW,225,17.2,19.0,22,0.00,,,0.00,WUHU216HW,2013-07-11 22:59:00,
2013-07-11 17:00:00,82.6,39.7,29.68,SW,225,14.5,19.0,22,0.00,,,0.00,WUHU216HW,2013-07-11 23:00:00,
2013-07-11 17:02:00,82.4,39.5,29.68,SW,225,10.5,18.8,22,0.00,,,0.00,WUHU216HW,2013-07-11 23:02:00,
2013-07-11 17:04:00,82.6,40.7,29.68,SW,225,14.3,18.3,23,0.00,,,0.00,WUHU216HW,2013-07-11 23:04:00,
2013-07-11 17:05:00,82.6,39.7,29.68,SSW,203,14.3,19.9,22,0.00,,,0.00,WUHU216HW,2013-07-11 23:05:00,
2013-07-11 17:07:00,82.4,40.6,29.68,SW,225,16.6,19.9,23,0.00,,,0.00,WUHU216HW,2013-07-11 23:07:00,
2013-07-11 17:10:00,82.6,40.7,29.68,SW,225,19.7,21.5,23,0.00,,,0.00,WUHU216HW,2013-07-11 23:10:00,
2013-07-11 17:11:00,82.4,41.6,29.68,SSW,203,19.2,21.5,24,0.00,,,0.00,WUHU216HW,2013-07-11 23:11:00,
2013-07-11 17:12:00,82.4,41.6,29.68,SSW,203,21.5,21.5,24,0.00,,,0.00,WUHU216HW,2013-07-11 23:12:00,
2013-07-11 17:15:00,82.3,41.5,29.68,SSW,203,18.6,21.5,24,0.00,,,0.00,WUHU216HW,2013-07-11 23:15:00,
2013-07-11 17:16:00,82.1,42.4,29.68,SSW,203,20.1,22.8,25,0.00,,,0.00,WUHU216HW,2013-07-11 23:16:00,
2013-07-11 17:17:00,81.9,42.2,29.68,SW,225,19.2,22.8,25,0.00,,,0.00,WUHU216HW,2013-07-11 23:17:00,
2013-07-11 17:20:00,81.7,42.1,29.68,SSW,203,16.1,22.8,25,0.00,,,0.00,WUHU216HW,2013-07-11 23:20:00,
2013-07-11 17:23:00,81.5,41.9,29.68,SW,225,13.6,22.8,25,0.00,,,0.00,WUHU216HW,2013-07-11 23:23:00,
2013-07-11 17:25:00,81.5,41.9,29.68,SSW,203,17.7,22.8,25,0.00,,,0.00,WUHU216HW,2013-07-11 23:25:00,
2013-07-11 17:28:00,81.7,42.1,29.68,SW,225,15.0,20.1,25,0.00,,,0.00,WUHU216HW,2013-07-11 23:28:00,
2013-07-11 17:30:00,81.7,42.1,29.67,SSW,203,17.0,20.1,25,0.00,,,0.00,WUHU216HW,2013-07-11 23:30:00,
2013-07-11 17:35:00,81.7,42.1,29.67,SW,225,17.9,18.1,25,0.00,,,0.00,WUHU216HW,2013-07-11 23:35:00,
2013-07-11 17:39:00,81.7,42.1,29.67,South,180,13.4,18.1,25,0.00,,,0.00,WUHU216HW,2013-07-11 23:39:00,
2013-07-11 17:40:00,81.5,41.9,29.67,SW,225,15.2,18.1,25,0.00,,,0.00,WUHU216HW,2013-07-11 23:40:00,
2013-07-11 17:41:00,81.4,41.8,29.67,SSW,203,13.6,17.9,25,0.00,,,0.00,WUHU216HW,2013-07-11 23:41:00,
2013-07-11 17:45:00,81.2,41.7,29.67,SW,225,15.4,17.9,25,0.00,,,0.00,WUHU216HW,2013-07-11 23:45:00,
2013-07-11 17:46:00,81.2,41.7,29.67,South,180,11.2,17.9,25,0.00,,,0.00,WUHU216HW,2013-07-11 23:46:00,
2013-07-11 17:50:00,80.8,42.4,29.67,SW,225,16.6,17.9,26,0.00,,,0.00,WUHU216HW,2013-07-11 23:50:00,
2013-07-11 17:51:00,80.8,42.4,29.67,SW,225,16.3,18.3,26,0.00,,,0.00,WUHU216HW,2013-07-11 23:51:00,
2013-07-11 17:52:00,80.6,42.3,29.67,SSW,203,17.0,20.4,26,0.00,,,0.00,WUHU216HW,2013-07-11 23:52:00,
2013-07-11 17:54:00,80.5,42.1,29.66,SW,225,14.3,20.4,26,0.00,,,0.00,WUHU216HW,2013-07-11 23:54:00,
2013-07-11 17:55:00,80.3,41.9,29.67,WSW,248,12.1,20.4,26,0.00,,,0.00,WUHU216HW,2013-07-11 23:55:00,
2013-07-11 17:56:00,80.3,41.9,29.67,SW,225,14.8,20.4,26,0.00,,,0.00,WUHU216HW,2013-07-11 23:56:00,
2013-07-11 17:57:00,80.3,41.9,29.67,SW,225,16.8,21.0,26,0.00,,,0.00,WUHU216HW,2013-07-11 23:57:00,
2013-07-11 18:00:00,79.9,41.6,29.67,SW,225,16.6,21.0,26,0.00,,,0.00,WUHU216HW,2013-07-12 00:00:00,
2013-07-11 18:01:00,79.9,41.6,29.67,SW,225,18.3,22.1,26,0.00,,,0.00,WUHU216HW,2013-07-12 00:01:00,
2013-07-11 18:02:00,79.7,41.5,29.67,SW,225,14.5,22.1,26,0.00,,,0.00,WUHU216HW,2013-07-12 00:02:00,
2013-07-11 18:03:00,79.7,42.5,29.67,SW,225,12.8,22.1,27,0.00,,,0.00,WUHU216HW,2013-07-12 00:03:00,
2013-07-11 18:05:00,79.6,43.4,29.67,WSW,248,19.7,22.1,28,0.00,,,0.00,WUHU216HW,2013-07-12 00:05:00,
2013-07-11 18:08:00,79.4,43.2,29.67,SW,225,10.5,22.1,28,0.00,,,0.00,WUHU216HW,2013-07-12 00:08:00,
2013-07-11 18:10:00,79.2,43.0,29.67,SW,225,14.8,22.1,28,0.00,,,0.00,WUHU216HW,2013-07-12 00:10:00,
2013-07-11 18:14:00,78.8,42.8,29.67,SSW,203,12.1,21.7,28,0.00,,,0.00,WUHU216HW,2013-07-12 00:14:00,
2013-07-11 18:16:00,78.8,42.8,29.68,SSW,203,13.4,21.7,28,0.00,,,0.00,WUHU216HW,2013-07-12 00:16:00,
2013-07-11 18:20:00,78.8,42.8,29.68,South,180,8.7,21.5,28,0.00,,,0.00,WUHU216HW,2013-07-12 00:20:00,
2013-07-11 18:21:00,78.7,42.6,29.68,SW,225,11.4,21.5,28,0.00,,,0.00,WUHU216HW,2013-07-12 00:21:00,
2013-07-11 18:22:00,78.7,42.6,29.68,SW,225,9.2,21.5,28,0.00,,,0.00,WUHU216HW,2013-07-12 00:22:00,
2013-07-11 18:25:00,78.5,42.5,29.68,SSW,203,13.4,16.8,28,0.00,,,0.00,WUHU216HW,2013-07-12 00:25:00,
2013-07-11 18:26:00,78.5,42.5,29.68,South,180,15.9,16.8,28,0.00,,,0.00,WUHU216HW,2013-07-12 00:26:00,
2013-07-11 18:28:00,78.5,42.5,29.68,South,180,11.6,16.8,28,0.00,,,0.00,WUHU216HW,2013-07-12 00:28:00,
2013-07-11 18:31:00,78.3,42.3,29.68,South,180,10.1,16.8,28,0.00,,,0.00,WUHU216HW,2013-07-12 00:31:00,
2013-07-11 18:33:00,78.3,43.4,29.68,SW,225,16.6,16.8,29,0.00,,,0.00,WUHU216HW,2013-07-12 00:33:00,
2013-07-11 18:36:00,78.1,43.2,29.68,SSE,158,12.1,16.6,29,0.00,,,0.00,WUHU216HW,2013-07-12 00:36:00,
2013-07-11 18:38:00,78.1,43.2,29.68,SSW,203,11.0,16.6,29,0.00,,,0.00,WUHU216HW,2013-07-12 00:38:00,
2013-07-11 18:41:00,77.9,43.0,29.68,SSW,203,6.5,16.6,29,0.00,,,0.00,WUHU216HW,2013-07-12 00:41:00,
2013-07-11 18:43:00,77.9,43.0,29.68,SSW,203,10.1,16.6,29,0.00,,,0.00,WUHU216HW,2013-07-12 00:43:00,
2013-07-11 18:44:00,77.9,43.0,29.68,SSW,203,10.7,16.1,29,0.00,,,0.00,WUHU216HW,2013-07-12 00:44:00,
2013-07-11 18:47:00,77.9,43.0,29.68,SSW,203,6.7,14.1,29,0.00,,,0.00,WUHU216HW,2013-07-12 00:47:00,
2013-07-11 18:49:00,77.8,42.9,29.68,WSW,248,8.3,13.2,29,0.00,,,0.00,WUHU216HW,2013-07-12 00:49:00,
2013-07-11 18:50:00,77.8,42.9,29.68,SSE,158,6.7,13.2,29,0.00,,,0.00,WUHU216HW,2013-07-12 00:50:00,
2013-07-11 18:52:00,77.8,42.9,29.68,WSW,248,16.6,16.6,29,0.00,,,0.00,WUHU216HW,2013-07-12 00:52:00,
2013-07-11 18:53:00,77.8,42.9,29.68,SSW,203,12.8,16.6,29,0.00,,,0.00,WUHU216HW,2013-07-12 00:53:00,
2013-07-11 18:54:00,77.8,42.9,29.68,SW,225,4.7,16.6,29,0.00,,,0.00,WUHU216HW,2013-07-12 00:54:00,
2013-07-11 18:55:00,77.8,42.9,29.68,SW,225,6.9,16.6,29,0.00,,,0.00,WUHU216HW,2013-07-12 00:55:00,
2013-07-11 18:58:00,77.8,42.9,29.68,WSW,248,1.8,16.6,29,0.00,,,0.00,WUHU216HW,2013-07-12 00:58:00,
2013-07-11 19:00:00,77.8,42.9,29.69,NNE,23,17.0,17.0,29,0.00,,,0.00,WUHU216HW,2013-07-12 01:00:00,
2013-07-11 19:03:00,75.6,43.6,29.70,North,0,16.3,24.2,32,0.00,,,0.00,WUHU216HW,2013-07-12 01:03:00,
2013-07-11 19:05:00,74.2,43.8,29.69,North,0,10.3,24.2,34,0.00,,,0.00,WUHU216HW,2013-07-12 01:05:00,
2013-07-11 19:08:00,72.9,43.5,29.69,North,0,13.4,24.2,35,0.00,,,0.00,WUHU216HW,2013-07-12 01:08:00,
2013-07-11 19:11:00,72.4,44.5,29.70,North,0,16.6,24.6,37,0.00,,,0.00,WUHU216HW,2013-07-12 01:11:00,
2013-07-11 19:13:00,72.0,45.6,29.70,North,0,21.5,24.6,39,0.00,,,0.00,WUHU216HW,2013-07-12 01:13:00,
2013-07-11 19:16:00,71.6,46.1,29.70,North,0,12.1,24.6,40,0.00,,,0.00,WUHU216HW,2013-07-12 01:16:00,
2013-07-11 19:18:00,71.1,45.6,29.70,North,0,17.9,24.6,40,0.00,,,0.00,WUHU216HW,2013-07-12 01:18:00,
2013-07-11 19:21:00,70.9,46.0,29.70,North,0,17.2,21.5,41,0.00,,,0.00,WUHU216HW,2013-07-12 01:21:00,
2013-07-11 19:22:00,70.7,45.9,29.70,North,0,16.3,21.5,41,0.00,,,0.00,WUHU216HW,2013-07-12 01:22:00,
2013-07-11 19:25:00,70.4,45.5,29.70,North,0,16.8,21.5,41,0.00,,,0.00,WUHU216HW,2013-07-12 01:25:00,
2013-07-11 19:26:00,70.4,45.5,29.70,North,0,12.5,21.5,41,0.00,,,0.00,WUHU216HW,2013-07-12 01:26:00,
2013-07-11 19:27:00,70.2,46.0,29.70,North,0,13.9,21.5,42,0.00,,,0.00,WUHU216HW,2013-07-12 01:27:00,
2013-07-11 19:30:00,70.2,46.0,29.71,North,0,11.2,18.8,42,0.00,,,0.00,WUHU216HW,2013-07-12 01:30:00,
2013-07-11 19:33:00,70.2,46.0,29.71,NW,315,13.6,19.0,42,0.00,,,0.00,WUHU216HW,2013-07-12 01:33:00,
2013-07-11 19:35:00,70.2,46.0,29.70,NNW,338,13.0,19.2,42,0.00,,,0.00,WUHU216HW,2013-07-12 01:35:00,
2013-07-11 19:38:00,70.2,46.5,29.70,NNW,338,13.2,19.2,43,0.00,,,0.00,WUHU216HW,2013-07-12 01:38:00,
2013-07-11 19:41:00,70.2,46.5,29.70,NW,315,17.4,19.2,43,0.00,,,0.00,WUHU216HW,2013-07-12 01:41:00,
2013-07-11 19:44:00,70.2,46.5,29.71,NW,315,15.0,19.2,43,0.00,,,0.00,WUHU216HW,2013-07-12 01:44:00,
2013-07-11 19:46:00,70.0,46.5,29.70,NNW,338,13.4,17.7,43,0.00,,,0.00,WUHU216HW,2013-07-12 01:46:00,
2013-07-11 19:49:00,69.8,46.3,29.70,NW,315,19.2,19.2,43,0.00,,,0.00,WUHU216HW,2013-07-12 01:49:00,
2013-07-11 19:50:00,69.8,46.3,29.71,NNW,338,19.0,19.7,43,0.00,,,0.00,WUHU216HW,2013-07-12 01:50:00,
2013-07-11 19:51:00,69.7,46.1,29.71,North,0,16.8,20.6,43,0.00,,,0.00,WUHU216HW,2013-07-12 01:51:00,
2013-07-11 19:55:00,69.7,46.7,29.71,NNW,338,15.9,21.5,44,0.00,,,0.00,WUHU216HW,2013-07-12 01:55:00,
2013-07-11 19:56:00,69.5,46.5,29.71,NNW,338,10.3,21.5,44,0.00,,,0.00,WUHU216HW,2013-07-12 01:56:00,
2013-07-11 20:00:00,69.1,46.8,29.71,NNW,338,12.8,21.5,45,0.00,,,0.00,WUHU216HW,2013-07-12 02:00:00,
2013-07-11 20:01:00,69.3,47.0,29.71,NNW,338,12.1,21.5,45,0.00,,,0.00,WUHU216HW,2013-07-12 02:01:00,
2013-07-11 20:02:00,69.1,46.8,29.71,NNW,338,12.8,19.7,45,0.00,,,0.00,WUHU216HW,2013-07-12 02:02:00,
2013-07-11 20:05:00,69.1,46.8,29.71,NNW,338,12.5,16.8,45,0.00,,,0.00,WUHU216HW,2013-07-12 02:05:00,
2013-07-11 20:07:00,69.1,46.8,29.71,NNW,338,11.4,16.8,45,0.00,,,0.00,WUHU216HW,2013-07-12 02:07:00,
2013-07-11 20:12:00,68.8,45.9,29.71,NNW,338,15.7,18.1,44,0.00,,,0.00,WUHU216HW,2013-07-12 02:12:00,
2013-07-11 20:15:00,68.8,45.9,29.72,NNW,338,12.3,18.1,44,0.00,,,0.00,WUHU216HW,2013-07-12 02:15:00,
2013-07-11 20:17:00,68.8,46.4,29.72,NNW,338,10.5,18.1,45,0.00,,,0.00,WUHU216HW,2013-07-12 02:17:00,
2013-07-11 20:18:00,68.8,45.9,29.71,NNW,338,11.0,18.1,44,0.00,,,0.00,WUHU216HW,2013-07-12 02:18:00,
2013-07-11 20:20:00,68.8,45.9,29.72,NNW,338,12.8,18.1,44,0.00,,,0.00,WUHU216HW,2013-07-12 02:20:00,
2013-07-11 20:23:00,68.8,46.4,29.72,NNW,338,9.6,16.3,45,0.00,,,0.00,WUHU216HW,2013-07-12 02:23:00,
2013-07-11 20:24:00,68.6,46.3,29.72,North,0,6.7,14.1,45,0.00,,,0.00,WUHU216HW,2013-07-12 02:24:00,
2013-07-11 20:26:00,68.4,46.7,29.72,NNW,338,9.2,14.1,46,0.00,,,0.00,WUHU216HW,2013-07-12 02:26:00,
2013-07-11 20:28:00,68.2,46.5,29.72,NNW,338,12.8,13.2,46,0.00,,,0.00,WUHU216HW,2013-07-12 02:28:00,
2013-07-11 20:29:00,68.0,46.5,29.72,NW,315,11.4,13.2,46,0.00,,,0.00,WUHU216HW,2013-07-12 02:29:00,
2013-07-11 20:30:00,68.0,46.5,29.72,North,0,9.6,14.1,46,0.00,,,0.00,WUHU216HW,2013-07-12 02:30:00,
2013-07-11 20:32:00,68.0,46.5,29.72,NW,315,8.3,14.1,46,0.00,,,0.00,WUHU216HW,2013-07-12 02:32:00,
2013-07-11 20:33:00,68.0,46.5,29.72,NNW,338,10.3,14.1,46,0.00,,,0.00,WUHU216HW,2013-07-12 02:33:00,
2013-07-11 20:35:00,67.9,46.8,29.72,NNW,338,7.6,14.1,47,0.00,,,0.00,WUHU216HW,2013-07-12 02:35:00,
2013-07-11 20:36:00,67.9,46.8,29.72,NNW,338,8.9,14.1,47,0.00,,,0.00,WUHU216HW,2013-07-12 02:36:00,
2013-07-11 20:37:00,67.9,46.8,29.72,NNW,338,8.9,14.1,47,0.00,,,0.00,WUHU216HW,2013-07-12 02:37:00,
2013-07-11 20:38:00,67.7,46.7,29.72,NNW,338,8.1,14.1,47,0.00,,,0.00,WUHU216HW,2013-07-12 02:38:00,
2013-07-11 20:40:00,67.7,46.7,29.72,NW,315,6.3,11.4,47,0.00,,,0.00,WUHU216HW,2013-07-12 02:40:00,
2013-07-11 20:42:00,67.7,46.7,29.72,NNW,338,9.2,11.4,47,0.00,,,0.00,WUHU216HW,2013-07-12 02:42:00,
2013-07-11 20:44:00,67.7,46.7,29.72,NW,315,9.4,11.4,47,0.00,,,0.00,WUHU216HW,2013-07-12 02:44:00,
2013-07-11 20:45:00,67.7,46.7,29.72,NNW,338,7.2,11.0,47,0.00,,,0.00,WUHU216HW,2013-07-12 02:45:00,
2013-07-11 20:47:00,67.7,46.7,29.72,NNW,338,7.6,11.0,47,0.00,,,0.00,WUHU216HW,2013-07-12 02:47:00,
2013-07-11 20:49:00,67.5,47.1,29.72,NNW,338,8.9,10.5,48,0.00,,,0.00,WUHU216HW,2013-07-12 02:49:00,
2013-07-11 20:51:00,67.5,47.1,29.72,NW,315,8.3,10.5,48,0.00,,,0.00,WUHU216HW,2013-07-12 02:51:00,
2013-07-11 20:52:00,67.5,47.1,29.72,North,0,10.1,10.5,48,0.00,,,0.00,WUHU216HW,2013-07-12 02:52:00,
2013-07-11 20:53:00,67.5,47.1,29.72,NNW,338,8.3,10.5,48,0.00,,,0.00,WUHU216HW,2013-07-12 02:53:00,
2013-07-11 20:55:00,67.3,47.5,29.72,NNW,338,9.2,10.5,49,0.00,,,0.00,WUHU216HW,2013-07-12 02:55:00,
2013-07-11 20:56:00,67.3,47.5,29.72,North,0,7.2,10.5,49,0.00,,,0.00,WUHU216HW,2013-07-12 02:56:00,
2013-07-11 20:58:00,67.1,47.3,29.72,NNW,338,6.9,10.5,49,0.00,,,0.00,WUHU216HW,2013-07-12 02:58:00,
2013-07-11 20:59:00,67.0,47.3,29.72,NNW,338,6.0,10.5,49,0.00,,,0.00,WUHU216HW,2013-07-12 02:59:00,
2013-07-11 21:00:00,67.0,47.3,29.73,NNW,338,8.1,10.1,49,0.00,,,0.00,WUHU216HW,2013-07-12 03:00:00,
2013-07-11 21:01:00,67.0,47.3,29.73,NW,315,8.3,10.1,49,0.00,,,0.00,WUHU216HW,2013-07-12 03:01:00,
2013-07-11 21:04:00,66.8,47.1,29.73,NW,315,7.6,9.8,49,0.00,,,0.00,WUHU216HW,2013-07-12 03:04:00,
2013-07-11 21:05:00,67.0,47.3,29.73,NW,315,5.8,9.8,49,0.00,,,0.00,WUHU216HW,2013-07-12 03:05:00,
2013-07-11 21:06:00,66.8,47.1,29.73,NNW,338,9.4,9.4,49,0.00,,,0.00,WUHU216HW,2013-07-12 03:06:00,
2013-07-11 21:07:00,66.8,47.1,29.73,NW,315,8.5,9.4,49,0.00,,,0.00,WUHU216HW,2013-07-12 03:07:00,
2013-07-11 21:09:00,67.0,46.6,29.73,North,0,9.8,12.3,48,0.00,,,0.00,WUHU216HW,2013-07-12 03:09:00,
2013-07-11 21:10:00,67.0,46.0,29.73,NNW,338,9.6,12.3,47,0.00,,,0.00,WUHU216HW,2013-07-12 03:10:00,
2013-07-11 21:12:00,67.0,46.0,29.73,NNW,338,13.6,13.6,47,0.00,,,0.00,WUHU216HW,2013-07-12 03:12:00,
2013-07-11 21:15:00,67.1,46.8,29.73,NNW,338,6.3,13.6,48,0.00,,,0.00,WUHU216HW,2013-07-12 03:15:00,
2013-07-11 21:17:00,67.0,46.0,29.74,North,0,4.0,13.6,47,0.00,,,0.00,WUHU216HW,2013-07-12 03:17:00,
2013-07-11 21:18:00,67.0,46.0,29.74,NNW,338,6.7,13.6,47,0.00,,,0.00,WUHU216HW,2013-07-12 03:18:00,
2013-07-11 21:20:00,67.1,46.2,29.74,NNW,338,7.6,13.6,47,0.00,,,0.00,WUHU216HW,2013-07-12 03:20:00,
2013-07-11 21:23:00,67.3,45.7,29.74,North,0,8.1,10.3,46,0.00,,,0.00,WUHU216HW,2013-07-12 03:23:00,
2013-07-11 21:25:00,67.3,45.2,29.74,NW,315,12.8,12.8,45,0.00,,,0.00,WUHU216HW,2013-07-12 03:25:00,
2013-07-11 21:28:00,67.7,45.5,29.74,NNW,338,12.8,13.9,45,0.00,,,0.00,WUHU216HW,2013-07-12 03:28:00,
2013-07-11 21:32:00,68.0,44.7,29.75,NW,315,27.1,27.1,43,0.00,,,0.00,WUHU216HW,2013-07-12 03:32:00,
2013-07-11 21:34:00,68.0,44.7,29.75,NW,315,27.1,27.1,43,0.00,,,0.00,WUHU216HW,2013-07-12 03:34:00,
2013-07-11 21:35:00,68.0,44.7,29.75,NW,315,19.0,29.8,43,0.00,,,0.00,WUHU216HW,2013-07-12 03:35:00,
2013-07-11 21:38:00,67.7,44.3,29.75,NNW,338,19.7,29.8,43,0.00,,,0.00,WUHU216HW,2013-07-12 03:38:00,
2013-07-11 21:40:00,67.5,44.7,29.75,NW,315,19.5,29.8,44,0.00,,,0.00,WUHU216HW,2013-07-12 03:40:00,
2013-07-11 21:41:00,67.3,44.6,29.75,NW,315,21.5,29.8,44,0.00,,,0.00,WUHU216HW,2013-07-12 03:41:00,
2013-07-11 21:43:00,67.3,44.6,29.76,WNW,293,26.8,29.8,44,0.00,,,0.00,WUHU216HW,2013-07-12 03:43:00,
2013-07-11 21:46:00,67.0,44.3,29.76,NW,315,19.9,28.2,44,0.00,,,0.00,WUHU216HW,2013-07-12 03:46:00,
2013-07-11 21:47:00,67.0,44.3,29.77,WNW,293,19.2,28.2,44,0.00,,,0.00,WUHU216HW,2013-07-12 03:47:00,
2013-07-11 21:49:00,66.8,44.6,29.77,NW,315,24.4,28.2,45,0.00,,,0.00,WUHU216HW,2013-07-12 03:49:00,
2013-07-11 21:51:00,66.4,44.4,29.77,NW,315,17.7,28.2,45,0.00,,,0.00,WUHU216HW,2013-07-12 03:51:00,
2013-07-11 21:52:00,66.4,44.4,29.77,WNW,293,22.4,28.2,45,0.00,,,0.00,WUHU216HW,2013-07-12 03:52:00,
2013-07-11 21:54:00,66.2,44.2,29.77,NW,315,22.4,28.4,45,0.00,,,0.00,WUHU216HW,2013-07-12 03:54:00,
2013-07-11 21:56:00,66.2,44.2,29.77,NW,315,22.4,28.4,45,0.00,,,0.00,WUHU216HW,2013-07-12 03:56:00,
2013-07-11 21:57:00,66.1,44.0,29.77,NW,315,22.4,28.4,45,0.00,,,0.00,WUHU216HW,2013-07-12 03:57:00,
2013-07-11 21:59:00,66.1,44.0,29.77,NW,315,17.9,28.4,45,0.00,,,0.00,WUHU216HW,2013-07-12 03:59:00,
2013-07-11 22:01:00,65.9,44.5,29.77,NNW,338,14.3,28.4,46,0.00,,,0.00,WUHU216HW,2013-07-12 04:01:00,
2013-07-11 22:06:00,65.7,44.3,29.77,NW,315,17.9,25.5,46,0.00,,,0.00,WUHU216HW,2013-07-12 04:06:00,
2013-07-11 22:11:00,65.2,44.4,29.77,NW,315,15.2,25.5,47,0.00,,,0.00,WUHU216HW,2013-07-12 04:11:00,
2013-07-11 22:16:00,65.0,44.2,29.77,WNW,293,11.4,21.5,47,0.00,,,0.00,WUHU216HW,2013-07-12 04:16:00,
2013-07-11 22:17:00,65.0,44.2,29.77,NW,315,15.9,21.5,47,0.00,,,0.00,WUHU216HW,2013-07-12 04:17:00,
2013-07-11 22:21:00,64.6,44.4,29.77,NW,315,23.0,23.0,48,0.00,,,0.00,WUHU216HW,2013-07-12 04:21:00,
2013-07-11 22:22:00,64.6,43.8,29.77,NW,315,20.8,23.0,47,0.00,,,0.00,WUHU216HW,2013-07-12 04:22:00,
2013-07-11 22:26:00,64.6,44.4,29.77,NW,315,20.8,23.0,48,0.00,,,0.00,WUHU216HW,2013-07-12 04:26:00,
2013-07-11 22:27:00,64.6,43.8,29.77,WNW,293,19.5,23.0,47,0.00,,,0.00,WUHU216HW,2013-07-12 04:27:00,
2013-07-11 22:31:00,64.4,44.2,29.77,NW,315,15.9,23.9,48,0.00,,,0.00,WUHU216HW,2013-07-12 04:31:00,
2013-07-11 22:32:00,64.4,44.2,29.77,NW,315,13.6,23.9,48,0.00,,,0.00,WUHU216HW,2013-07-12 04:32:00,
2013-07-11 22:33:00,64.4,44.8,29.77,NW,315,12.8,23.9,49,0.00,,,0.00,WUHU216HW,2013-07-12 04:33:00,
2013-07-11 22:36:00,64.3,43.5,29.78,North,0,9.8,23.9,47,0.00,,,0.00,WUHU216HW,2013-07-12 04:36:00,
2013-07-11 22:37:00,64.1,43.9,29.78,North,0,15.7,23.9,48,0.00,,,0.00,WUHU216HW,2013-07-12 04:37:00,
2013-07-11 22:38:00,64.3,44.0,29.78,North,0,14.8,22.1,48,0.00,,,0.00,WUHU216HW,2013-07-12 04:38:00,
2013-07-11 22:42:00,64.4,43.7,29.78,North,0,15.2,22.4,47,0.00,,,0.00,WUHU216HW,2013-07-12 04:42:00,
2013-07-11 22:43:00,64.4,44.2,29.78,North,0,13.4,22.4,48,0.00,,,0.00,WUHU216HW,2013-07-12 04:43:00,
2013-07-11 22:47:00,64.4,44.2,29.78,North,0,4.0,22.4,48,0.00,,,0.00,WUHU216HW,2013-07-12 04:47:00,
2013-07-11 22:48:00,64.3,44.0,29.78,North,0,6.3,22.4,48,0.00,,,0.00,WUHU216HW,2013-07-12 04:48:00,
2013-07-11 22:49:00,64.3,44.0,29.78,North,0,6.3,22.4,48,0.00,,,0.00,WUHU216HW,2013-07-12 04:49:00,
2013-07-11 22:52:00,64.1,44.5,29.78,NW,315,4.5,13.4,49,0.00,,,0.00,WUHU216HW,2013-07-12 04:52:00,
2013-07-11 22:53:00,63.9,44.9,29.78,NNW,338,8.3,13.4,50,0.00,,,0.00,WUHU216HW,2013-07-12 04:53:00,
2013-07-11 22:54:00,63.9,44.9,29.78,North,0,5.8,9.8,50,0.00,,,0.00,WUHU216HW,2013-07-12 04:54:00,
2013-07-11 22:57:00,64.4,42.5,29.78,West,270,23.7,23.7,45,0.00,,,0.00,WUHU216HW,2013-07-12 04:57:00,
2013-07-11 22:59:00,65.3,43.4,29.78,WSW,248,15.7,24.4,45,0.00,,,0.00,WUHU216HW,2013-07-12 04:59:00,
2013-07-11 23:00:00,65.5,42.9,29.78,West,270,20.8,24.4,44,0.00,,,0.00,WUHU216HW,2013-07-12 05:00:00,
2013-07-11 23:02:00,66.1,43.5,29.77,West,270,14.5,26.4,44,0.00,,,0.00,WUHU216HW,2013-07-12 05:02:00,
2013-07-11 23:04:00,66.1,41.7,29.77,WNW,293,18.1,26.4,41,0.00,,,0.00,WUHU216HW,2013-07-12 05:04:00,
2013-07-11 23:05:00,66.2,41.9,29.77,West,270,22.8,26.4,41,0.00,,,0.00,WUHU216HW,2013-07-12 05:05:00,
2013-07-11 23:07:00,66.4,41.4,29.77,WNW,293,20.8,26.4,40,0.00,,,0.00,WUHU216HW,2013-07-12 05:07:00,
2013-07-11 23:09:00,66.4,41.4,29.77,NW,315,8.3,26.4,40,0.00,,,0.00,WUHU216HW,2013-07-12 05:09:00,
2013-07-11 23:10:00,66.4,41.4,29.77,NW,315,8.9,26.4,40,0.00,,,0.00,WUHU216HW,2013-07-12 05:10:00,
2013-07-11 23:12:00,66.4,40.0,29.77,West,270,12.8,22.8,38,0.00,,,0.00,WUHU216HW,2013-07-12 05:12:00,
2013-07-11 23:14:00,66.4,40.7,29.77,WNW,293,6.7,22.8,39,0.00,,,0.00,WUHU216HW,2013-07-12 05:14:00,
2013-07-11 23:15:00,66.4,40.7,29.77,West,270,5.1,22.8,39,0.00,,,0.00,WUHU216HW,2013-07-12 05:15:00,
2013-07-11 23:17:00,66.2,40.5,29.77,WNW,293,4.9,14.3,39,0.00,,,0.00,WUHU216HW,2013-07-12 05:17:00,
2013-07-11 23:18:00,66.2,40.5,29.77,WNW,293,3.4,14.3,39,0.00,,,0.00,WUHU216HW,2013-07-12 05:18:00,
2013-07-11 23:19:00,66.2,40.5,29.77,WSW,248,4.0,13.4,39,0.00,,,0.00,WUHU216HW,2013-07-12 05:19:00,
2013-07-11 23:20:00,66.2,39.8,29.77,NNW,338,7.4,12.8,38,0.00,,,0.00,WUHU216HW,2013-07-12 05:20:00,
2013-07-11 23:22:00,66.2,39.1,29.77,NNW,338,7.4,12.8,37,0.00,,,0.00,WUHU216HW,2013-07-12 05:22:00,
2013-07-11 23:23:00,66.4,39.3,29.77,NW,315,5.8,10.7,37,0.00,,,0.00,WUHU216HW,2013-07-12 05:23:00,
2013-07-11 23:24:00,66.4,39.3,29.77,NNW,338,1.6,10.7,37,0.00,,,0.00,WUHU216HW,2013-07-12 05:24:00,
2013-07-11 23:25:00,66.4,40.0,29.77,WNW,293,2.5,10.7,38,0.00,,,0.00,WUHU216HW,2013-07-12 05:25:00,
2013-07-11 23:28:00,66.6,39.3,29.76,NW,315,10.5,10.7,37,0.00,,,0.00,WUHU216HW,2013-07-12 05:28:00,
2013-07-11 23:29:00,66.6,39.3,29.76,SW,225,9.4,10.7,37,0.00,,,0.00,WUHU216HW,2013-07-12 05:29:00,
2013-07-11 23:30:00,66.6,40.2,29.76,West,270,6.5,10.5,38,0.00,,,0.00,WUHU216HW,2013-07-12 05:30:00,
2013-07-11 23:33:00,66.4,40.0,29.76,WSW,248,11.9,13.0,38,0.00,,,0.00,WUHU216HW,2013-07-12 05:33:00,
2013-07-11 23:34:00,66.2,39.8,29.76,West,270,13.4,17.2,38,0.00,,,0.00,WUHU216HW,2013-07-12 05:34:00,
2013-07-11 23:35:00,66.2,39.8,29.76,West,270,13.4,17.2,38,0.00,,,0.00,WUHU216HW,2013-07-12 05:35:00,
2013-07-11 23:38:00,66.2,39.1,29.76,West,270,17.9,18.3,37,0.00,,,0.00,WUHU216HW,2013-07-12 05:38:00,
2013-07-11 23:40:00,66.4,37.8,29.76,WNW,293,20.4,20.4,35,0.00,,,0.00,WUHU216HW,2013-07-12 05:40:00,
2013-07-11 23:43:00,67.3,37.8,29.75,WNW,293,11.4,20.8,34,0.00,,,0.00,WUHU216HW,2013-07-12 05:43:00,
2013-07-11 23:45:00,67.5,37.3,29.75,NW,315,9.6,20.8,33,0.00,,,0.00,WUHU216HW,2013-07-12 05:45:00,
2013-07-11 23:46:00,67.7,37.4,29.75,NW,315,20.1,20.8,33,0.00,,,0.00,WUHU216HW,2013-07-12 05:46:00,
2013-07-11 23:48:00,67.9,37.5,29.74,West,270,8.3,20.8,33,0.00,,,0.00,WUHU216HW,2013-07-12 05:48:00,
2013-07-11 23:50:00,68.0,36.2,29.74,NW,315,17.7,22.1,31,0.00,,,0.00,WUHU216HW,2013-07-12 05:50:00,
2013-07-11 23:51:00,68.4,35.8,29.74,NW,315,13.2,22.1,30,0.00,,,0.00,WUHU216HW,2013-07-12 05:51:00,
2013-07-11 23:53:00,68.8,36.8,29.73,West,270,9.2,22.1,31,0.00,,,0.00,WUHU216HW,2013-07-12 05:53:00,
2013-07-11 23:55:00,68.8,36.8,29.73,WSW,248,9.2,22.1,31,0.00,,,0.00,WUHU216HW,2013-07-12 05:55:00,
2013-07-11 23:56:00,68.8,36.8,29.74,WSW,248,6.5,22.1,31,0.00,,,0.00,WUHU216HW,2013-07-12 05:56:00,
2013-07-11 23:58:00,68.6,37.5,29.74,WSW,248,6.3,22.1,32,0.00,,,0.00,WUHU216HW,2013-07-12 05:58:00,
2013-07-11 23:59:00,68.4,38.0,29.74,WSW,248,9.2,22.1,33,0.00,,,0.00,WUHU216HW,2013-07-12 05:59:00,